ECMWFFLT2_500_spd_000.txt.gz
Wind_Speed
34 33 32 31 34 35 35 40 43 39 35 36 36 35 39 42 44 41 35 29 29 31 31 23 15 14 16 18 19 18 19 20 20 21 20 18 15 11 6 5 8 11 13 15 16 14 14 13 13 15 15 15 16 16 18 20 20 20 19 18 18 19 20
33 29 30 32 33 34 35 38 40 38 34 34 36 35 37 42 43 38 31 24 23 25 24 18 14 15 17 19 19 19 20 20 19 21 21 20 19 16 12 11 10 9 9 12 13 13 13 13 14 14 14 15 16 17 18 19 20 21 20 19 19 19 20
28 25 30 35 33 31 33 31 30 35 39 38 39 38 35 36 35 32 28 23 20 21 21 18 17 18 19 20 20 19 18 19 20 22 22 22 22 19 16 16 14 10 8 9 10 12 13 14 14 13 14 15 16 17 18 19 21 22 21 20 20 21 22
28 26 32 39 38 33 32 30 26 30 38 39 37 36 34 33 32 30 29 26 23 22 22 20 18 18 19 18 18 17 17 20 22 23 23 23 21 18 17 16 14 10 8 10 12 14 15 15 14 13 14 14 15 17 19 20 21 22 22 22 23 23 23
33 34 36 36 36 34 35 36 32 29 33 35 32 33 33 33 33 32 31 28 27 26 26 24 21 20 19 18 18 19 21 22 23 24 23 23 22 20 18 16 13 10 8 9 12 14 15 14 13 13 13 14 15 17 19 21 23 22 22 24 26 25 25
35 36 34 26 24 30 36 38 35 32 31 31 31 33 34 35 37 35 32 30 29 29 29 26 25 24 22 21 22 23 23 22 23 24 21 20 22 22 21 19 15 10 8 9 10 12 13 12 12 12 13 15 16 18 20 22 23 23 24 25 27 28 27
34 32 28 20 18 26 35 37 36 34 32 32 33 33 32 34 39 40 37 35 33 32 31 29 27 26 23 23 24 23 22 22 22 21 20 20 22 23 22 21 18 14 11 11 12 12 12 12 13 14 15 17 18 19 21 23 24 25 27 27 28 28 28
34 29 24 20 20 27 35 38 38 36 34 34 36 33 29 30 36 40 39 37 35 32 29 29 30 28 24 23 24 22 23 23 20 19 21 23 23 22 21 22 21 18 14 13 14 15 15 15 16 17 18 19 20 22 23 24 26 28 30 29 29 29 29
35 31 28 26 26 32 39 41 39 36 35 37 39 37 32 30 34 39 39 36 33 29 23 24 29 30 26 24 24 23 24 24 21 21 23 23 23 23 23 24 24 20 17 17 17 17 18 18 19 20 21 22 22 23 25 27 29 30 31 31 30 30 30
40 36 35 33 31 33 37 40 39 37 36 38 41 40 35 31 31 37 39 34 28 25 22 20 22 24 23 23 24 23 24 25 25 26 25 22 22 23 23 25 24 20 19 20 22 22 21 21 22 23 23 24 25 26 27 28 30 32 33 33 32 32 32
43 36 32 29 29 31 34 35 35 36 38 39 40 41 37 31 29 33 36 31 26 25 24 21 20 19 19 21 22 23 25 27 29 30 28 24 24 23 22 23 22 20 21 24 25 24 24 24 25 25 26 28 29 29 30 31 32 34 35 35 35 34 33
40 33 28 25 25 27 29 29 28 29 33 37 40 40 37 32 30 33 36 33 27 25 24 22 21 20 19 21 22 23 26 29 32 33 32 30 28 27 26 25 24 24 28 30 28 26 25 25 26 27 30 32 32 32 33 34 34 34 36 37 37 36 35
37 32 31 29 26 25 24 24 25 24 27 34 40 38 35 33 32 31 33 32 24 21 23 23 21 20 21 22 22 24 28 32 35 35 35 34 33 32 30 28 28 31 33 32 29 28 28 28 29 30 33 34 35 35 34 35 34 34 36 37 38 38 37
34 33 33 33 30 29 27 23 22 23 25 30 35 34 32 32 32 28 28 30 27 25 25 25 23 21 22 24 25 27 32 35 36 35 35 36 36 35 33 31 31 32 32 31 31 31 33 33 34 35 35 34 34 35 35 35 35 35 36 38 39 40 40
34 33 34 35 33 31 31 27 25 26 27 28 29 30 29 29 29 25 26 31 33 31 29 28 26 24 24 26 28 30 34 37 37 35 35 37 38 37 35 34 32 30 29 31 33 34 37 39 39 39 38 36 35 35 35 35 34 35 37 38 39 40 41
38 35 35 37 37 34 31 29 29 30 31 33 32 29 28 28 26 24 27 31 31 30 32 31 30 29 29 29 30 32 35 37 37 37 38 38 39 38 37 37 35 32 33 36 38 39 41 42 42 42 42 41 39 38 37 36 34 34 35 36 38 39 38
41 39 37 36 38 37 31 28 32 35 35 35 36 34 34 35 33 31 32 32 31 32 35 35 35 35 34 34 34 35 36 37 37 39 40 39 39 38 38 39 38 39 42 44 44 45 45 44 44 44 45 44 43 42 42 39 35 33 34 35 37 38 39
42 42 41 37 37 39 34 28 32 39 39 36 36 37 38 39 40 40 38 36 37 40 41 40 37 35 34 36 37 36 37 38 39 39 39 39 40 38 37 39 41 43 45 46 47 48 48 47 47 47 46 45 45 45 44 41 37 36 37 38 39 40 40
43 44 44 41 40 43 39 32 30 36 40 40 39 39 40 39 40 41 38 37 39 40 40 40 36 34 36 39 40 40 39 40 39 39 39 40 40 38 37 40 44 46 46 47 49 52 50 49 49 48 46 45 45 44 42 40 39 39 39 40 40 40 39
45 45 45 45 44 44 41 35 31 32 36 38 38 38 39 39 37 36 33 32 32 31 31 33 32 34 39 41 41 42 40 39 39 39 39 39 39 39 41 45 49 50 50 49 52 53 51 49 48 46 44 43 41 39 38 38 38 38 39 40 42 43 41
47 47 47 47 45 44 42 38 34 33 36 37 36 37 38 37 37 37 36 34 32 29 29 31 32 33 36 37 38 38 37 37 37 37 39 41 43 44 47 49 51 52 52 53 53 51 48 45 44 42 41 41 40 39 39 38 36 36 39 40 41 41 39
48 49 49 49 48 46 46 44 40 37 37 38 38 38 38 37 36 36 37 37 36 34 33 33 35 35 34 34 35 36 36 37 38 39 42 44 46 47 47 50 53 54 54 52 49 45 42 40 40 41 41 41 41 42 41 39 37 38 39 39 39 37 35
49 49 47 49 51 51 51 50 48 44 42 42 39 37 37 37 36 35 35 34 36 38 37 35 34 34 33 34 37 39 40 41 42 43 45 46 47 48 49 51 53 52 49 46 42 39 39 39 39 40 41 41 42 42 40 39 38 37 36 36 36 34 33
47 48 47 47 50 53 55 54 51 49 48 46 42 38 37 38 37 37 35 31 33 38 41 40 38 37 36 39 42 42 43 43 44 45 47 47 47 49 51 52 51 47 43 40 38 38 39 39 39 40 40 40 40 40 41 39 35 34 32 31 30 31 34
48 48 48 49 51 54 57 58 55 52 51 50 47 45 45 42 39 39 39 37 35 36 39 42 43 42 42 43 44 44 44 45 46 47 47 45 45 48 51 52 50 46 41 39 38 39 39 39 39 40 40 40 40 41 42 39 34 33 32 30 29 32 35
53 51 49 51 54 55 58 61 60 56 53 52 51 50 49 46 42 41 42 43 42 41 40 41 43 46 47 47 45 43 44 45 47 47 48 47 48 51 52 51 50 47 44 41 40 39 38 38 38 39 41 42 41 40 40 38 35 34 34 33 32 34 37
53 53 49 50 54 57 60 62 61 58 54 52 51 50 49 48 47 47 47 48 49 49 47 45 44 45 48 50 48 45 44 45 46 47 49 51 53 53 50 48 47 47 46 44 43 41 40 38 38 39 40 42 41 40 38 38 38 36 35 33 33 35 39
52 53 52 52 55 59 62 61 58 57 55 53 52 50 50 51 51 51 51 52 52 52 54 54 52 49 49 51 52 51 50 49 48 48 49 51 51 48 44 43 44 45 46 46 45 43 41 39 38 38 39 40 40 40 39 39 40 39 36 34 34 36 36
50 51 54 57 58 59 59 57 54 54 54 54 53 50 49 49 50 50 50 50 49 48 50 54 56 55 53 52 52 51 48 45 44 44 45 45 43 41 41 43 44 45 45 44 43 41 40 39 38 37 37 38 38 39 40 42 41 39 37 36 35 34 33
48 46 46 50 53 55 54 51 48 47 47 49 50 49 49 50 51 52 50 47 43 41 41 43 48 50 51 50 50 47 44 41 42 43 42 41 40 40 40 41 42 42 42 41 39 37 37 37 37 37 37 37 37 37 37 38 37 35 35 35 34 32 33
52 48 43 41 42 46 47 44 41 41 42 43 45 46 48 49 49 48 47 44 42 41 40 41 44 46 47 49 49 48 44 43 44 44 42 41 40 39 37 37 37 39 40 40 38 37 36 36 36 36 35 35 34 33 31 31 33 36 38 38 37 36 36
51 51 48 43 40 40 40 38 38 38 38 39 40 40 42 43 42 42 45 46 46 45 44 45 46 48 49 49 50 49 46 44 44 42 41 40 40 37 36 35 36 37 38 39 38 37 36 35 35 34 34 33 33 32 32 32 35 41 43 41 41 42 43
46 49 50 47 43 42 40 38 38 37 36 36 37 37 37 38 39 41 44 46 45 43 43 45 47 49 50 49 49 48 45 43 42 41 40 39 37 35 34 34 34 35 36 36 36 35 34 34 33 34 34 35 34 35 35 34 36 41 44 43 42 44 47
38 40 41 40 40 40 38 36 36 36 34 33 34 35 36 38 39 40 41 42 42 42 44 47 49 50 50 48 47 44 41 40 40 39 36 33 31 31 32 33 33 34 34 34 33 33 33 33 33 34 36 36 37 37 37 36 36 39 43 44 45 46 46
34 33 32 31 30 30 29 29 30 31 31 30 30 32 34 36 38 40 41 42 44 45 47 47 45 43 41 39 37 33 31 31 32 32 30 30 30 31 32 32 33 33 33 33 33 33 33 34 35 36 37 37 37 36 36 37 37 36 39 41 43 40 37
34 33 31 29 27 26 26 28 30 31 32 32 33 33 34 35 37 39 40 42 42 42 40 37 34 31 31 31 30 28 28 29 30 30 31 32 33 33 33 33 33 33 34 34 34 34 35 36 37 38 38 38 37 37 38 40 39 37 38 39 40 41 43
32 33 31 27 26 27 29 31 32 33 34 35 35 36 36 36 35 34 34 36 37 36 35 33 32 31 31 31 31 30 31 31 32 33 33 33 33 34 34 34 34 34 35 35 35 36 37 38 39 40 40 40 41 42 43 43 43 42 42 43 45 48 52

ECMWFFLT2_500_spd_003.txt.gz
Wind_Speed
44 43 42 41 43 44 44 47 49 49 46 44 43 40 36 33 32 33 34 34 34 33 30 26 21 20 20 21 23 21 17 16 15 14 15 15 12 11 11 12 11 13 16 19 21 21 20 19 20 21 21 21 21 20 19 18 19 19 19 19 19 19 20
43 42 42 43 44 44 44 46 47 48 47 46 45 41 38 36 35 35 35 34 33 34 33 27 23 24 22 17 18 19 16 15 14 15 16 14 12 12 12 14 14 15 17 20 22 22 22 20 21 22 22 20 18 17 18 18 19 19 19 20 21 23 23
43 41 43 44 45 45 44 45 46 49 51 50 49 46 41 40 40 39 38 37 35 36 34 28 24 26 23 17 16 18 16 14 14 16 16 15 14 12 11 12 13 15 17 18 19 20 20 18 18 19 18 17 16 16 17 18 18 19 19 20 21 23 25
44 44 46 46 47 48 47 48 50 51 53 52 50 48 45 44 44 43 43 43 41 39 37 31 28 27 24 20 18 17 15 14 16 17 17 17 16 12 10 9 9 10 12 15 17 18 17 16 15 15 15 14 14 15 15 16 18 19 19 20 21 22 24
46 47 49 47 46 48 49 51 52 51 52 52 48 47 49 48 47 46 47 47 43 40 37 35 32 28 24 21 18 14 14 16 18 19 18 18 17 11 8 8 6 6 8 9 12 14 14 14 14 14 14 13 14 14 15 16 18 20 21 22 23 23 25
49 48 47 44 43 44 45 48 50 49 50 51 49 48 50 49 47 46 46 43 38 35 35 35 34 29 24 23 19 14 15 19 20 20 19 19 16 10 8 9 7 7 9 8 8 9 9 9 10 11 11 12 13 14 15 17 19 20 22 22 23 24 26
48 46 46 45 42 40 42 45 47 47 48 50 51 51 51 48 46 44 42 40 36 32 32 33 33 29 26 26 23 18 19 22 23 22 20 18 14 10 9 11 8 9 10 9 7 7 7 7 7 8 10 11 13 14 16 17 18 20 22 23 24 25 27
45 45 46 46 41 39 41 42 43 45 46 45 45 45 44 44 45 43 40 39 37 33 32 33 33 30 28 27 27 25 25 26 25 23 20 18 15 10 10 11 9 9 11 10 8 6 7 9 9 10 11 13 15 16 17 17 19 21 24 25 26 28 29
46 47 48 48 44 41 41 40 40 41 41 41 42 41 38 38 40 40 39 38 35 32 30 30 31 30 28 27 27 29 30 29 26 23 19 18 15 11 13 14 10 8 8 8 8 8 9 12 12 12 13 15 16 17 17 18 20 23 26 27 29 30 31
50 51 51 49 47 44 41 39 38 37 37 38 41 42 40 39 38 38 38 37 34 31 27 25 28 29 28 28 27 27 28 28 27 23 18 17 15 13 15 18 15 11 10 9 9 11 14 15 14 13 14 15 16 17 19 21 23 26 28 29 30 31 33
48 48 47 45 43 42 39 38 37 37 36 37 41 44 43 39 38 37 37 35 33 30 25 23 26 28 28 26 23 20 21 24 24 20 16 16 16 15 18 21 20 17 15 15 15 16 18 17 14 14 15 17 19 21 24 25 27 29 30 31 32 33 34
45 44 44 42 40 40 38 36 34 35 36 38 43 47 43 38 38 36 32 30 30 28 25 25 27 29 27 22 18 16 17 18 19 17 17 18 18 19 21 23 23 22 21 21 20 19 18 18 17 18 20 22 25 27 29 31 32 33 34 34 34 34 35
42 43 43 42 40 40 38 36 34 32 34 38 44 46 41 37 37 34 29 29 29 28 29 29 28 27 24 19 16 15 16 17 18 18 19 21 21 21 22 24 25 26 26 26 25 23 22 21 22 24 26 29 30 32 34 36 36 37 37 37 36 37 38
37 43 44 42 40 39 38 37 35 33 33 37 42 44 40 37 37 35 34 34 32 31 32 29 25 23 22 20 18 18 18 19 20 20 21 23 24 23 24 26 27 27 28 28 28 27 26 26 27 29 30 32 34 36 39 41 40 40 40 39 39 39 39
34 41 44 43 40 38 37 36 35 34 34 35 39 42 41 39 39 38 39 39 34 31 29 26 22 22 23 22 22 22 22 21 20 21 22 25 26 25 26 27 28 28 28 29 30 31 31 31 31 31 33 35 37 39 43 45 44 42 40 40 41 40 41
34 39 45 45 40 38 38 36 33 33 33 33 36 39 40 38 37 37 39 38 31 27 27 27 25 26 25 24 24 24 23 22 21 23 25 26 27 27 28 29 30 30 30 30 32 34 35 35 35 35 37 39 40 42 45 47 45 42 40 42 42 41 42
33 37 44 43 39 39 41 39 36 35 34 33 34 36 38 37 34 34 38 37 29 23 24 25 25 26 26 26 26 27 25 24 24 26 26 27 29 29 30 31 32 32 31 32 34 36 38 39 38 38 40 41 42 45 47 47 45 43 42 43 43 41 41
34 37 43 42 40 39 39 38 39 40 39 37 37 38 38 38 36 34 35 36 32 27 25 24 24 26 28 29 29 29 28 27 26 26 26 28 31 32 33 34 34 33 33 35 37 39 40 40 40 41 42 42 44 47 48 46 43 42 42 42 42 42 41
34 38 43 45 43 39 35 36 39 42 43 43 42 41 40 40 40 37 35 35 34 33 31 30 30 31 33 33 32 30 29 28 27 26 28 31 33 34 36 36 35 34 36 38 39 40 41 41 42 43 43 44 46 46 45 43 41 41 42 42 43 44 44
35 40 45 48 47 42 38 39 40 42 46 47 44 43 43 42 42 43 42 38 35 35 37 35 34 33 33 32 31 30 30 29 28 29 32 34 36 38 39 37 34 35 38 40 40 41 42 42 43 44 45 46 47 46 42 40 40 41 42 42 44 45 45
37 40 45 47 48 46 44 43 42 42 47 50 46 41 41 43 44 46 47 43 39 41 43 41 38 35 32 31 32 33 33 32 32 33 36 38 39 39 39 36 35 37 40 41 43 44 43 42 43 45 46 47 47 45 43 41 42 43 43 43 44 44 44
37 38 41 42 45 49 47 45 44 44 46 49 47 41 40 42 44 46 48 46 43 43 43 41 40 37 32 31 33 35 36 36 36 37 39 40 39 38 38 38 38 40 42 44 45 45 44 44 46 47 48 47 47 46 45 44 44 45 45 45 45 45 44
40 39 40 39 41 48 50 47 46 46 46 46 44 41 41 44 46 47 48 47 45 45 43 40 39 37 31 29 30 32 33 35 37 40 42 42 39 37 38 39 40 43 44 45 46 45 44 46 49 50 49 48 47 47 46 45 45 46 46 46 46 47 47
44 44 44 42 41 44 47 48 47 47 49 48 46 43 43 43 43 44 44 42 39 42 45 43 39 35 31 29 31 31 33 35 39 42 44 43 40 39 41 42 44 46 46 46 47 46 46 48 50 51 50 48 48 49 48 48 48 47 47 47 47 48 49
48 46 45 46 46 44 43 43 42 43 45 45 45 44 44 43 41 38 37 36 33 34 38 39 38 35 33 31 32 33 36 38 40 41 43 43 42 44 46 48 49 48 46 46 48 48 48 50 51 52 52 50 49 49 48 49 49 48 47 46 46 47 49
52 49 45 43 45 46 46 44 40 39 39 37 37 39 40 42 42 39 36 35 34 32 34 36 38 37 35 33 33 35 39 41 41 42 43 44 45 48 50 52 52 50 49 48 49 49 50 52 53 54 53 50 48 47 48 49 48 47 45 43 43 44 45
56 55 50 45 43 43 45 46 43 41 39 35 35 37 38 40 42 41 39 37 36 35 35 36 37 37 36 35 35 37 40 41 42 43 44 46 49 52 52 53 53 53 52 51 50 50 52 53 54 53 51 48 47 48 48 47 45 43 42 40 39 39 37
58 61 57 52 49 47 45 45 45 45 44 41 38 36 35 37 40 41 42 43 42 41 40 39 38 38 37 36 37 38 40 42 43 45 47 49 52 53 53 54 54 55 56 55 54 52 51 50 49 48 47 47 47 45 43 40 38 37 37 37 37 35 31
54 60 59 54 52 51 50 49 48 48 47 45 43 40 38 37 39 42 45 47 48 49 48 46 45 43 41 40 40 42 43 45 46 48 50 51 53 54 54 55 56 58 58 57 54 50 47 45 46 46 46 46 43 40 38 36 35 35 35 35 34 32 31
48 52 55 52 48 49 51 53 54 54 51 48 45 43 43 43 42 43 45 47 48 51 52 52 51 50 49 47 47 47 47 49 51 53 55 56 55 55 56 57 59 60 59 56 52 48 44 44 45 45 45 44 41 38 36 35 34 34 34 33 32 31 31
46 47 49 49 46 45 48 49 52 55 56 54 50 46 45 46 45 43 43 44 46 48 49 49 48 47 48 49 49 49 49 50 52 54 55 57 57 56 57 58 58 57 56 53 47 43 42 43 44 44 43 42 39 37 35 34 34 33 34 34 33 32 33
43 45 46 47 45 43 44 43 44 46 48 51 51 49 46 46 45 41 40 42 45 46 46 45 43 42 43 45 48 49 51 52 52 51 50 52 53 54 54 55 54 54 55 52 44 39 40 43 43 43 42 40 38 36 34 33 33 33 34 34 34 34 34
42 43 44 46 46 44 42 42 43 45 46 47 49 50 50 50 47 42 40 41 43 43 43 43 43 43 44 46 49 50 52 53 52 51 50 50 51 51 52 53 53 53 52 48 42 38 39 40 40 40 40 39 38 37 35 34 34 34 35 35 35 35 33
44 45 45 45 46 44 42 41 43 45 47 48 48 48 48 48 48 50 50 46 41 40 39 40 42 42 43 45 47 47 47 47 47 49 52 54 54 54 54 53 51 46 41 38 36 35 35 36 38 39 40 40 39 38 37 36 36 36 35 35 34 34 32
38 40 42 44 45 45 45 45 44 44 45 47 47 45 44 45 49 54 53 46 40 39 40 40 40 40 40 42 43 44 44 44 45 46 48 49 50 49 47 44 39 35 32 31 31 32 33 35 38 39 40 40 40 39 39 39 39 39 38 37 35 35 36
33 33 34 37 39 41 42 43 42 41 42 43 42 42 43 43 44 45 44 41 39 39 39 37 36 36 37 39 40 42 42 42 39 38 37 36 36 35 34 32 30 30 30 31 31 32 34 36 37 39 41 42 41 41 40 41 41 42 42 41 40 40 40
33 33 33 32 31 32 34 36 37 37 37 37 37 38 38 36 34 33 33 34 34 34 32 32 33 34 36 36 35 36 37 36 34 33 33 33 33 32 32 31 31 31 32 32 33 34 35 37 39 41 42 42 42 42 41 41 42 43 43 44 44 44 43

ECMWFFLT2_500_spd_006.txt.gz
Wind_Speed
51 51 52 53 54 52 50 50 50 50 50 48 48 47 43 40 40 42 43 42 38 32 28 25 21 20 20 17 11 8 9 10 14 15 13 13 14 14 14 13 14 16 16 15 16 17 19 20 21 21 21 21 20 20 20 18 16 15 16 18 18 18 17
53 52 51 53 55 54 52 51 49 50 50 50 50 50 48 45 45 45 44 42 40 38 34 27 23 21 19 16 12 8 9 12 16 17 15 14 14 15 14 14 16 17 17 16 16 17 18 20 21 22 22 21 20 19 19 17 16 16 16 17 17 16 17
55 54 53 53 54 55 54 51 49 51 53 52 52 53 52 50 48 47 46 44 43 41 37 30 26 22 17 15 13 11 11 13 16 16 13 14 15 15 14 16 18 17 14 13 13 16 18 19 20 21 22 21 19 17 17 16 16 16 16 16 16 16 17
56 56 58 57 55 55 55 53 53 55 54 53 53 53 52 51 50 49 47 48 47 43 37 32 28 24 18 15 15 15 14 15 16 13 13 15 16 15 15 17 18 16 13 11 8 10 13 16 17 18 17 16 15 15 15 16 16 16 16 16 16 18 19
55 58 59 56 53 55 57 55 56 56 55 55 54 53 52 51 51 50 49 50 48 42 37 32 28 25 22 19 18 18 19 19 17 15 15 17 17 16 16 17 17 15 13 10 7 5 6 9 12 13 13 13 14 15 15 15 15 15 15 16 18 19 20
54 56 55 52 51 54 55 54 55 55 54 54 55 55 55 53 52 52 51 51 49 43 39 34 29 26 24 23 22 22 23 23 20 18 20 20 19 19 18 17 16 15 13 10 7 5 3 4 6 9 10 12 13 13 14 14 15 16 16 18 19 21 22
53 52 50 51 51 52 54 54 53 53 54 54 55 56 54 53 54 53 52 53 50 45 41 37 31 27 25 23 23 25 27 27 21 19 22 22 20 20 19 17 15 13 13 11 7 4 3 2 2 5 7 9 11 12 14 15 16 17 18 20 22 23 25
52 50 48 50 52 53 55 57 55 55 56 55 54 54 53 52 54 53 53 54 51 46 43 39 34 31 28 25 24 25 28 29 24 21 22 22 20 21 20 18 15 12 10 9 7 4 4 3 3 4 5 7 10 12 13 15 16 18 20 21 23 25 27
50 50 49 51 53 55 56 58 58 57 55 54 54 53 52 52 54 54 54 55 50 46 44 40 34 30 28 28 27 26 27 28 26 24 23 23 23 23 21 18 15 12 8 6 5 3 4 6 6 7 7 7 8 9 11 13 15 17 19 21 23 26 28
51 53 53 52 53 54 56 57 58 57 55 55 55 53 52 53 55 55 56 55 50 46 44 39 34 30 28 27 26 26 27 26 25 25 25 25 25 25 22 19 15 12 9 7 6 5 6 8 9 8 6 6 7 8 11 14 16 18 20 23 26 28 30
45 50 51 49 48 51 53 55 56 55 53 54 55 55 55 54 55 56 53 50 49 48 43 38 34 31 28 23 21 21 23 24 24 25 26 26 25 24 22 19 15 12 10 9 8 7 8 9 9 9 8 8 9 12 15 18 20 21 24 28 30 31 33
35 41 44 44 45 47 49 51 53 53 51 52 56 58 56 54 56 54 47 44 46 46 41 35 31 28 24 21 19 17 16 19 22 22 22 22 22 23 21 17 13 12 11 10 10 9 9 9 9 9 9 11 13 16 19 21 23 25 27 29 31 32 35
26 33 40 43 44 47 49 50 52 52 51 53 54 54 52 53 55 50 41 41 43 39 33 27 24 22 22 21 19 15 13 16 19 20 19 19 20 20 19 14 12 13 13 13 13 13 13 11 11 11 12 14 16 18 20 23 25 27 29 29 30 31 33
22 26 34 41 45 47 50 52 51 51 52 52 51 50 49 50 51 46 40 40 39 32 26 23 21 20 20 21 20 17 16 18 19 20 20 19 19 18 16 13 13 15 16 16 17 18 19 18 17 17 17 19 20 21 23 24 26 27 28 29 29 30 31
27 25 28 37 45 48 51 52 51 51 51 50 48 48 47 46 46 43 40 41 38 29 24 24 24 22 22 23 22 19 19 20 21 21 22 21 18 15 15 16 17 19 20 20 20 21 23 24 24 23 24 25 26 26 27 28 29 30 30 31 31 31 31
32 28 27 33 41 47 53 54 53 51 51 49 46 45 46 46 44 42 41 41 36 28 25 26 26 25 25 26 25 22 21 23 24 23 22 20 17 15 16 19 20 22 23 23 23 24 25 26 27 27 29 30 30 30 31 32 32 32 33 33 34 34 34
34 32 29 30 35 45 54 57 53 51 51 49 45 43 44 44 44 42 40 37 31 27 26 28 27 26 26 26 26 24 25 26 25 23 22 19 18 18 19 21 22 24 26 26 26 26 27 28 29 31 32 32 32 33 34 34 34 35 35 35 36 37 38
36 34 31 31 35 45 53 54 52 51 51 49 47 45 44 44 43 41 37 33 31 31 31 30 29 29 27 25 24 25 26 27 27 26 24 22 21 22 22 23 24 26 28 29 29 29 29 30 31 32 33 34 34 35 36 36 36 37 37 37 37 39 41
37 35 35 36 39 43 48 52 52 51 49 48 46 46 46 44 42 39 35 32 33 35 34 33 34 34 30 26 26 27 29 29 30 29 28 26 26 25 24 25 27 29 31 33 32 31 31 31 32 34 35 36 37 37 38 38 38 39 39 39 40 41 43
39 38 37 38 38 39 45 52 54 52 50 47 45 45 46 44 41 38 35 33 33 35 35 34 34 34 32 29 29 30 31 32 32 31 29 28 28 27 26 28 31 33 34 35 34 33 33 33 35 36 38 39 40 40 41 41 40 40 41 41 43 44 45
40 39 37 36 34 34 43 52 54 53 51 48 45 43 43 42 40 38 36 35 35 36 37 35 34 34 35 34 33 34 34 34 33 32 31 31 31 31 32 33 35 36 36 36 35 34 35 36 38 40 41 42 43 44 44 43 42 43 43 43 45 48 50
39 39 38 36 34 33 39 47 53 53 50 47 44 42 41 40 39 38 37 36 36 36 38 37 36 37 38 39 38 38 37 35 34 34 35 36 37 37 36 36 37 38 38 38 37 37 38 40 41 42 43 43 44 46 46 45 44 45 45 46 49 52 52
41 40 39 37 34 33 34 39 48 50 48 46 44 41 39 39 41 41 39 38 38 37 37 38 39 40 41 42 41 39 37 36 34 35 37 39 39 38 38 39 40 40 41 41 41 41 42 43 44 44 44 44 44 46 46 46 47 47 47 50 54 54 52
44 42 40 38 34 32 31 34 40 45 46 46 46 43 41 39 41 43 43 42 42 42 40 40 42 42 43 43 43 40 38 38 37 37 38 39 38 39 40 41 42 42 43 43 43 42 43 44 46 46 46 44 44 44 46 47 49 49 50 53 54 51 50
46 44 40 38 34 31 31 33 36 41 44 44 43 42 42 41 41 43 44 44 45 45 44 43 43 42 42 43 43 41 40 41 42 41 38 36 37 39 40 41 42 43 43 43 43 43 44 45 46 47 47 47 46 46 46 48 50 51 53 54 52 50 49
44 43 42 39 36 32 31 32 35 39 42 42 42 43 44 44 44 45 47 48 49 48 47 45 44 43 43 44 44 43 43 46 47 45 41 40 40 40 40 41 42 43 44 45 45 45 46 46 46 47 49 50 49 48 48 51 54 54 54 54 52 51 50
36 36 38 40 39 35 33 33 35 38 40 40 42 45 46 45 45 45 47 47 47 47 45 44 44 45 44 42 41 41 42 46 49 48 44 44 44 42 42 43 45 45 45 45 45 45 47 49 49 50 50 51 51 51 52 55 57 56 55 55 53 51 49
32 32 36 40 41 38 36 36 38 40 40 40 40 41 42 43 43 43 42 40 39 40 41 41 41 41 39 37 36 35 35 38 42 44 43 43 43 42 42 44 45 46 45 44 44 46 49 51 52 53 53 54 54 54 55 57 58 57 56 52 49 47 46
32 34 35 39 42 40 39 40 41 41 41 41 39 38 36 36 37 38 38 38 38 39 40 40 39 37 36 33 32 32 33 33 36 38 39 40 40 40 41 44 45 44 43 43 45 48 51 53 55 57 58 58 57 57 58 58 57 54 50 45 43 43 44
31 34 35 37 41 42 43 44 44 43 42 40 39 38 35 34 35 37 38 40 40 40 39 39 38 37 36 35 33 33 34 35 36 37 38 39 38 38 40 42 42 42 42 43 46 49 52 55 57 59 60 59 59 59 58 55 52 49 45 43 43 43 43
32 33 36 38 41 43 45 45 44 43 41 38 37 37 36 35 35 36 37 38 38 37 37 36 36 36 36 36 37 38 39 40 40 39 39 38 38 38 39 41 42 43 43 44 46 49 52 55 57 58 58 59 58 56 52 50 49 47 45 44 43 42 41
37 33 34 38 41 44 45 43 41 40 39 38 38 38 38 38 39 38 38 38 36 36 37 37 37 38 38 38 39 40 42 43 45 45 45 45 44 42 42 43 45 46 46 48 50 52 54 56 58 58 60 59 55 50 46 45 44 43 42 41 39 38 38
42 38 35 34 37 43 47 47 45 43 40 39 39 39 40 42 43 41 41 41 40 39 39 40 40 41 41 42 42 43 44 45 45 47 48 49 48 45 43 45 46 47 47 48 50 52 55 58 60 60 58 53 47 41 39 38 37 37 38 38 37 37 37
40 40 39 36 35 37 41 44 48 49 47 45 44 43 42 43 42 40 38 39 39 39 40 42 42 41 43 44 44 44 45 44 44 44 45 46 47 46 45 45 45 45 45 45 46 48 50 51 51 48 43 37 34 33 34 35 36 38 39 38 38 38 37
34 36 40 42 41 37 34 35 39 43 48 51 51 49 49 48 46 42 40 40 39 39 40 42 42 42 43 43 43 43 45 44 44 45 45 45 45 45 44 42 41 41 41 41 42 43 41 38 34 32 30 30 31 33 35 37 38 39 39 40 40 39 38
33 34 36 40 41 40 37 35 35 35 38 42 43 41 41 42 40 37 36 37 37 37 38 40 42 43 43 44 46 48 50 50 50 48 45 42 40 39 39 39 39 39 38 38 38 38 37 33 31 31 31 32 33 35 37 38 38 38 40 41 42 41 40
34 34 34 35 37 39 39 40 39 37 37 38 37 34 33 34 34 32 32 33 35 36 37 39 41 42 43 45 48 50 50 51 51 49 43 39 37 36 36 36 36 35 35 36 36 36 35 34 33 33 34 35 36 37 38 39 39 39 40 41 43 43 41

ECMWFFLT2_500_spd_009.txt.gz
Wind_Speed
58 59 61 59 59 61 60 59 58 55 50 47 47 48 47 45 45 45 45 41 30 23 22 21 20 19 18 19 18 19 20 18 17 19 18 14 11 11 12 12 13 15 16 18 18 17 16 16 17 18 19 19 18 18 17 17 17 16 14 14 15 15 14
59 59 60 61 61 62 62 62 58 54 53 52 50 51 51 49 50 50 48 43 37 32 28 24 22 21 19 18 18 18 18 17 16 16 15 11 11 13 14 13 14 16 16 18 18 17 17 17 17 18 20 21 20 19 18 17 16 15 14 14 14 14 14
58 59 60 63 63 64 65 63 57 56 58 57 54 55 55 53 53 53 50 46 42 37 32 27 24 23 21 19 18 17 17 16 13 14 14 13 14 14 14 14 14 15 16 17 16 16 16 16 16 17 19 19 19 18 17 16 16 15 14 13 13 14 14
56 59 62 64 65 66 66 65 62 61 61 59 56 56 56 55 55 54 53 50 44 37 32 28 25 23 21 20 16 15 16 15 12 12 13 13 14 15 14 14 15 16 17 16 15 15 15 15 15 16 16 15 14 15 15 15 15 14 12 12 13 14 14
57 60 63 63 64 66 67 67 68 66 64 62 59 57 57 57 56 56 55 53 45 34 30 28 26 24 21 17 14 14 16 15 13 14 13 13 14 15 15 16 17 17 17 16 15 14 14 13 13 13 12 11 11 11 12 13 14 13 12 13 13 14 15
58 60 61 60 61 64 66 67 68 67 65 63 61 60 60 58 58 58 57 56 48 36 29 28 26 26 23 17 14 15 15 16 16 15 15 15 15 17 18 19 19 18 17 17 16 14 13 12 10 9 9 9 10 11 12 13 13 12 12 12 13 14 16
57 58 58 58 60 62 64 66 67 65 64 63 62 62 60 58 59 59 58 58 51 40 32 29 27 28 27 21 18 17 15 15 15 15 16 17 17 19 23 23 20 18 18 18 17 15 14 12 10 9 9 9 10 10 11 11 11 11 12 12 14 15 17
55 55 55 56 57 59 63 66 66 66 65 64 63 62 59 59 60 59 59 60 55 45 36 29 27 28 27 23 22 20 16 15 16 17 18 19 19 22 25 24 21 19 19 19 18 17 15 14 13 11 10 9 9 9 10 10 10 12 12 12 14 15 17
53 54 55 56 58 58 61 64 64 64 64 63 63 63 62 63 64 60 59 60 57 49 39 32 31 29 25 24 24 22 19 17 18 19 21 22 23 23 24 24 22 20 20 20 19 18 17 16 15 15 13 11 11 10 10 10 11 12 12 12 14 16 19
56 58 60 61 60 60 60 61 62 63 63 63 63 64 66 68 67 63 62 61 57 49 41 35 35 33 28 25 23 20 18 17 19 21 23 24 24 23 23 23 22 22 22 21 20 19 17 16 15 15 14 14 13 12 11 10 11 11 12 15 17 18 21
56 59 60 59 57 58 59 58 58 60 62 63 63 64 66 67 66 65 63 60 55 48 41 36 35 35 32 28 23 19 17 18 20 23 24 24 23 23 23 23 23 24 23 21 21 20 18 16 14 13 13 13 13 12 11 11 11 13 15 17 19 20 22
53 53 54 53 50 51 55 55 53 54 58 60 62 64 64 63 63 63 58 55 53 47 40 36 35 36 34 32 29 24 21 22 22 21 23 25 25 24 24 24 25 25 23 22 21 20 20 17 14 12 12 12 12 12 11 12 12 14 16 18 20 21 22
49 48 48 48 46 45 47 50 50 49 51 56 60 62 62 60 61 59 52 51 51 46 39 37 36 36 34 31 30 26 24 25 23 19 20 23 25 25 25 25 25 24 23 23 21 20 20 18 15 13 12 12 13 13 13 13 14 16 17 18 20 21 23
45 43 41 44 44 41 41 45 48 47 48 51 55 58 60 60 59 56 51 50 49 45 41 39 38 37 35 32 31 29 27 25 23 19 18 21 23 24 24 24 24 23 22 22 22 20 19 18 17 15 13 13 14 15 16 16 17 17 18 19 20 21 24
43 39 37 40 41 40 40 43 45 46 46 48 50 53 55 59 59 55 53 52 50 45 42 41 39 38 36 33 32 31 29 26 23 19 18 19 21 22 23 23 23 22 21 22 23 21 18 19 19 18 17 16 16 16 17 18 18 18 19 19 21 23 26
41 37 35 38 38 37 40 43 44 45 46 47 49 50 52 55 57 56 55 54 50 45 43 42 40 37 35 33 31 30 28 26 23 19 18 20 21 23 24 23 22 21 21 22 23 23 22 22 21 21 20 20 20 20 20 19 19 19 20 22 24 26 29
41 37 35 36 35 36 42 47 47 45 46 46 47 48 51 52 54 55 56 53 49 46 44 43 41 37 35 33 30 27 26 25 23 20 20 22 24 25 24 21 20 20 21 22 24 25 25 26 25 24 23 23 24 24 24 23 22 22 23 25 27 29 31
41 39 37 37 39 41 45 48 48 46 46 46 47 47 48 50 52 54 55 52 49 46 43 42 41 39 37 34 31 28 25 25 25 23 23 25 27 27 24 20 20 22 23 24 27 28 28 30 29 27 25 25 26 26 27 27 27 27 27 28 30 31 32
43 41 40 40 42 44 45 47 48 48 46 47 48 47 47 48 51 54 53 52 50 46 41 39 39 40 39 36 32 29 26 24 24 24 25 26 28 29 27 23 23 25 25 26 29 31 32 33 32 29 27 27 27 28 29 31 32 32 32 32 32 34 35
46 44 42 43 43 42 43 45 47 48 48 49 50 51 51 50 52 53 52 50 48 45 41 39 39 39 39 37 35 32 29 26 25 26 27 28 31 32 30 27 26 27 27 28 32 34 36 36 34 31 30 30 29 30 31 33 34 35 35 36 36 37 38
47 46 45 45 43 42 43 45 45 46 49 52 52 53 54 53 52 53 52 49 47 44 40 39 39 38 37 38 38 35 31 28 28 29 30 32 34 34 32 30 30 31 32 34 36 38 38 38 36 34 34 33 32 33 34 34 36 37 38 39 39 40 41
47 48 46 45 45 45 44 44 44 45 48 51 53 54 55 55 53 52 51 48 45 41 39 39 39 37 37 39 38 35 33 31 31 32 33 35 36 36 35 35 36 37 37 38 39 39 39 39 38 37 37 36 35 35 36 35 36 38 39 40 42 42 44
46 47 46 44 44 45 43 41 40 41 43 46 50 54 56 55 52 50 49 47 43 40 39 39 38 37 38 39 37 35 33 33 34 35 36 37 38 38 38 39 40 40 41 41 42 42 42 41 40 40 40 39 38 38 38 37 38 38 39 41 43 44 45
46 46 45 43 43 43 41 39 37 36 37 40 46 53 56 54 50 48 46 44 43 41 39 38 37 38 38 38 36 35 34 34 36 37 37 38 39 40 41 41 41 42 43 43 44 45 44 43 42 42 43 42 41 40 40 41 40 39 39 42 44 46 46
46 46 44 41 43 43 41 38 35 31 32 38 46 53 55 51 47 45 43 42 43 42 39 38 39 39 38 36 35 34 35 36 37 38 39 40 40 41 42 42 42 42 43 44 45 45 45 44 43 43 44 43 42 42 43 44 44 41 41 44 45 46 47
47 45 43 40 40 42 40 37 34 31 31 37 45 51 52 49 47 45 42 40 40 41 40 40 41 41 39 37 35 35 37 39 40 40 40 40 40 41 42 42 42 42 43 44 44 43 43 42 42 43 44 44 44 45 46 47 47 44 44 46 48 47 48
46 45 43 41 39 39 40 38 34 33 32 33 40 47 49 48 47 46 44 42 40 40 40 40 41 41 40 39 38 38 40 41 41 41 41 41 41 41 42 43 42 43 44 44 44 43 42 42 42 44 45 46 46 48 50 50 48 46 47 49 49 48 49
44 45 44 44 41 38 40 39 36 34 32 30 33 42 47 47 47 47 45 42 40 38 38 39 41 41 40 39 39 40 41 42 43 43 42 42 42 43 44 45 45 46 46 46 46 45 44 43 45 46 48 49 48 48 49 48 48 47 49 50 50 50 49
43 44 41 43 44 42 41 40 37 34 32 30 31 37 42 43 44 45 43 41 39 37 37 39 41 41 41 40 40 40 41 42 44 45 45 44 44 44 44 44 44 46 48 50 50 49 46 45 46 48 49 50 49 48 47 46 47 48 49 50 51 51 50
40 40 36 35 40 43 42 40 39 36 33 32 32 35 39 40 41 42 42 41 38 36 37 38 40 42 43 42 42 42 43 44 45 46 46 44 43 42 41 40 40 41 43 45 47 47 46 46 48 48 48 47 48 49 49 48 48 47 47 48 50 50 49
38 37 34 31 34 39 41 40 39 38 37 37 36 35 36 38 39 40 43 44 42 39 38 39 41 44 45 45 44 46 47 46 44 44 44 42 41 40 38 38 37 37 37 38 40 42 45 46 47 48 47 47 48 49 49 48 46 45 45 45 45 45 45
39 36 35 34 34 38 42 42 41 40 42 43 43 40 38 38 39 40 42 44 44 43 41 42 43 43 45 46 46 46 45 43 41 40 40 39 38 37 35 35 35 36 37 40 42 45 47 48 48 47 47 48 48 48 48 47 46 44 41 39 40 39 38
41 41 38 36 34 37 42 45 45 43 44 45 46 44 42 41 41 42 44 45 45 43 42 42 42 42 43 44 44 43 41 40 39 38 37 36 35 34 34 36 38 40 42 44 45 46 46 46 46 46 46 48 48 48 48 47 43 38 35 34 34 33 32
37 41 39 36 35 36 40 45 46 45 46 47 47 45 44 43 43 44 46 48 47 45 42 40 40 41 42 41 40 39 38 37 37 36 36 35 34 35 36 38 41 43 44 43 43 44 44 44 45 47 48 48 47 46 44 41 36 33 32 32 32 32 34
27 36 40 38 36 34 35 39 42 44 47 49 48 47 46 46 46 46 46 48 49 50 47 43 40 40 40 40 38 37 36 36 36 36 36 35 34 35 36 38 41 43 44 44 45 46 47 47 48 49 47 45 43 42 40 38 35 35 35 34 34 36 37
22 31 39 41 39 36 32 31 33 37 41 45 47 47 48 48 48 48 49 49 48 48 47 45 41 39 39 40 40 39 38 37 36 36 35 34 35 35 36 38 41 43 44 46 47 48 48 48 48 47 44 42 40 40 39 37 36 36 36 36 37 38 38
22 24 28 32 37 38 36 32 29 29 32 37 40 43 45 46 47 48 50 49 48 45 42 40 38 37 38 39 41 41 39 36 34 33 33 35 36 37 38 40 43 45 47 49 48 47 46 45 44 42 40 39 38 38 37 36 36 37 38 38 39 39 39

ECMWFFLT2_500_spd_012.txt.gz
Wind_Speed
56 57 56 57 61 62 59 59 59 56 52 44 35 31 32 35 37 40 47 45 40 40 31 25 31 33 31 30 28 25 25 25 25 22 19 21 24 25 21 16 16 16 15 15 14 14 14 13 12 13 13 13 14 16 17 17 17 16 15 14 14 14 13
55 57 56 57 60 62 62 62 60 54 53 51 41 34 35 38 36 39 43 38 34 39 31 27 35 34 32 31 28 26 25 24 24 21 16 18 22 24 20 17 17 17 17 16 15 15 14 12 11 12 13 14 14 15 16 16 16 15 15 15 15 14 13
53 56 57 58 60 62 63 63 62 60 60 59 51 42 39 38 38 41 43 36 33 37 31 30 36 34 32 31 28 28 26 23 23 21 17 18 20 20 19 18 18 19 18 16 16 16 15 13 11 11 14 15 14 14 14 15 16 16 17 16 15 14 14
51 56 59 60 61 61 61 66 69 66 64 63 59 52 44 38 36 38 41 42 40 36 31 32 34 36 36 32 29 30 26 21 22 21 18 19 20 19 19 19 19 19 18 18 18 17 16 13 11 12 13 14 14 13 13 14 15 17 17 16 15 15 15
51 56 60 60 61 61 63 68 69 68 68 67 61 55 50 46 42 36 36 42 44 38 33 34 35 37 37 32 29 29 24 21 23 22 20 19 19 19 19 20 20 20 19 20 19 17 16 14 12 12 13 12 13 13 13 14 15 16 16 16 15 16 15
50 53 57 58 58 60 63 66 67 67 71 70 62 54 48 47 48 44 40 41 41 37 35 36 37 36 35 31 29 27 23 22 23 21 20 20 17 17 18 20 20 20 21 21 20 18 17 14 12 12 12 11 12 13 14 14 15 15 15 15 15 15 15
49 49 53 56 58 59 60 62 65 67 70 71 67 61 53 44 41 44 46 45 41 40 41 37 37 39 38 32 29 27 24 24 23 21 21 20 18 17 19 21 20 21 23 23 21 20 18 15 13 12 11 11 11 12 13 13 13 14 14 14 15 15 15
47 47 49 52 56 58 57 59 63 66 69 70 69 68 65 55 43 40 45 50 46 43 45 40 34 35 36 32 29 28 26 24 23 21 22 22 20 19 20 21 21 22 24 23 22 21 19 17 15 13 12 12 12 12 12 12 13 14 14 14 15 15 15
46 47 47 50 57 61 59 60 63 65 67 68 69 70 69 67 59 46 44 53 53 47 46 41 33 31 30 29 29 28 27 26 24 22 21 21 19 18 19 21 21 23 23 23 23 23 21 19 16 14 13 14 15 14 14 14 14 14 14 15 15 15 16
44 46 47 51 57 61 61 63 64 65 67 68 69 70 70 71 71 63 55 54 52 50 51 44 36 33 29 28 30 30 26 24 23 20 19 19 18 18 20 22 22 23 23 23 24 24 23 21 18 15 14 16 17 17 17 16 16 15 15 16 16 15 16
42 42 44 48 52 56 60 63 63 63 66 67 67 71 72 71 73 74 71 62 51 48 52 48 40 36 32 28 29 30 26 22 21 20 20 19 19 20 22 23 23 23 22 23 24 24 24 22 20 18 17 17 17 17 18 18 17 17 17 17 17 16 16
41 40 41 44 48 52 55 59 61 62 64 65 67 71 71 70 71 73 74 74 67 58 53 50 44 37 32 30 31 29 26 23 22 21 20 19 19 20 23 23 23 22 23 24 24 24 23 22 21 20 19 18 18 17 18 18 18 18 18 18 17 16 16
41 40 40 40 44 48 51 54 58 60 61 62 66 69 69 68 71 73 74 75 73 65 57 52 47 39 33 31 31 29 27 27 24 21 19 19 19 21 24 24 23 23 24 25 25 25 24 23 22 21 21 20 19 19 19 18 17 17 17 17 16 16 16
39 39 39 38 41 45 47 50 54 55 57 60 62 65 66 66 68 71 73 72 67 62 58 53 49 46 39 31 29 30 30 30 27 22 19 20 21 23 24 25 24 24 26 26 26 26 26 23 21 21 21 21 20 20 19 17 17 17 18 18 18 18 17
41 39 37 37 40 41 42 46 50 52 53 56 58 61 62 63 65 67 69 70 66 60 57 53 51 51 45 35 31 33 33 30 25 22 21 22 23 24 25 25 24 25 27 26 27 28 26 23 22 21 21 22 21 21 19 18 17 17 16 17 17 17 17
42 39 37 37 38 38 39 42 46 49 50 51 54 57 59 61 63 63 64 67 66 60 56 54 51 50 47 40 35 35 33 29 26 25 24 24 24 25 25 25 25 26 26 26 27 28 26 24 24 24 23 23 22 22 21 22 21 18 16 15 15 17 19
41 38 37 36 37 40 43 43 44 47 50 51 52 54 57 59 60 61 62 64 63 57 55 54 49 46 46 41 37 37 35 31 29 28 27 25 25 25 25 25 26 26 26 27 28 27 25 25 26 26 27 26 24 23 24 24 24 21 19 18 18 20 22
40 37 34 34 38 44 45 43 42 44 48 50 52 53 55 57 58 60 61 59 57 55 55 53 49 46 44 41 39 38 36 33 31 30 28 27 27 27 26 26 28 28 27 27 28 26 26 27 28 29 30 29 27 26 25 24 24 24 23 22 22 23 24
41 39 36 36 39 41 40 37 38 42 45 47 50 53 53 54 56 58 59 57 55 55 54 53 51 48 44 42 41 40 38 35 33 32 31 29 29 30 28 28 30 29 26 26 27 27 28 29 30 31 31 31 32 29 25 24 25 26 26 26 26 26 27
42 42 42 40 39 37 36 36 37 40 44 47 50 52 53 55 56 57 57 55 53 52 52 52 52 49 45 44 43 42 39 36 35 35 33 31 32 31 29 30 31 29 26 27 29 30 30 31 32 33 34 35 35 31 26 26 29 30 30 29 29 29 29
43 42 41 40 40 38 36 36 38 39 42 46 49 50 51 53 54 56 56 54 51 50 50 51 51 48 46 45 44 42 38 36 35 35 34 33 34 33 31 31 32 30 29 30 31 30 31 33 35 37 38 37 35 33 31 30 31 33 34 33 32 31 31
44 42 40 39 39 38 37 37 38 39 42 47 48 48 49 50 51 53 54 53 51 49 49 50 49 48 47 46 43 41 39 37 36 36 35 35 36 35 34 33 33 33 33 33 33 33 35 38 39 40 40 39 38 36 35 34 35 36 38 37 36 35 35
47 45 43 41 38 37 37 37 35 36 42 45 44 44 47 48 48 50 53 52 50 49 48 49 48 47 47 45 41 39 38 39 39 38 37 37 37 37 36 35 35 36 35 35 37 39 40 41 41 41 41 41 41 40 39 39 39 39 40 40 39 38 38
49 48 46 43 39 38 37 36 35 36 40 41 40 43 45 44 44 47 51 51 50 48 47 46 46 46 46 44 40 38 37 39 40 40 40 39 39 39 38 36 37 38 37 37 39 41 43 43 43 43 44 44 44 44 44 44 43 43 42 42 42 42 41
50 51 48 44 41 38 36 36 37 38 39 41 42 43 43 42 42 45 48 50 49 48 46 43 42 43 43 42 39 37 37 38 39 41 42 41 40 41 39 37 37 38 39 38 40 42 43 43 44 44 45 46 47 47 47 47 46 45 44 44 44 44 43
50 52 51 48 46 41 35 36 38 39 40 42 43 42 41 41 42 42 44 48 49 47 45 42 39 38 39 39 38 36 37 38 39 41 43 43 41 40 40 39 39 39 40 40 42 44 44 44 44 45 46 47 48 48 48 48 47 46 47 47 46 46 46
50 51 51 50 49 42 35 34 37 39 41 41 41 41 40 39 39 39 41 45 47 47 45 44 41 38 38 38 37 36 37 37 38 40 42 43 42 41 41 41 41 41 41 41 42 44 45 45 46 46 47 47 48 48 49 49 49 50 49 48 47 47 48
48 49 48 46 44 39 35 34 36 38 39 39 39 40 39 35 34 35 37 40 43 44 44 44 43 41 38 38 37 37 37 37 38 39 41 42 43 42 42 42 41 42 42 41 41 42 44 46 47 48 48 48 49 50 51 51 51 51 51 49 48 47 49
42 42 42 41 40 38 37 36 37 37 37 39 40 40 39 35 33 32 33 34 37 40 42 43 42 39 37 37 38 38 37 37 38 38 39 41 43 43 42 42 41 41 41 40 40 40 42 43 46 47 47 47 48 49 50 51 51 50 49 49 48 47 49
39 39 39 38 37 38 37 37 39 38 38 38 39 40 38 35 33 32 31 32 34 36 39 41 40 37 35 36 37 38 39 39 39 39 39 40 41 42 42 42 41 40 41 41 40 41 42 43 44 44 44 44 45 45 45 45 46 46 48 49 48 46 46
36 37 37 35 35 36 36 37 40 40 38 37 39 39 37 35 33 32 31 32 34 35 38 40 41 39 37 37 37 38 39 40 41 41 41 41 42 42 42 42 41 42 43 44 43 43 44 44 44 43 42 42 43 43 42 43 44 45 47 48 46 45 45
32 33 33 30 31 35 36 38 41 41 39 38 38 38 37 37 35 32 31 32 34 36 38 41 42 42 40 39 38 38 39 40 41 42 42 42 43 43 43 43 42 43 45 45 45 44 42 40 39 39 39 40 42 43 44 44 45 46 46 45 45 45 47
28 31 31 30 33 36 36 38 41 41 40 40 40 38 37 36 35 34 33 34 36 37 39 41 42 43 42 41 40 40 39 40 41 42 42 42 42 42 43 43 42 43 45 45 42 39 37 36 37 38 40 42 43 44 45 46 46 45 45 45 46 47 48
26 26 26 28 32 33 33 37 41 43 43 43 41 40 39 37 36 36 38 39 40 40 40 41 42 42 43 43 43 42 42 40 40 41 42 42 43 42 42 42 42 43 45 43 39 36 36 37 38 39 41 42 43 44 46 46 45 45 46 47 48 48 47
24 21 21 25 30 32 32 34 39 43 44 45 44 42 41 40 39 39 41 42 43 43 43 44 44 43 43 43 43 43 43 42 41 42 43 44 44 43 42 42 41 41 41 40 38 37 37 37 38 39 41 42 44 45 46 46 47 47 47 48 49 48 46
22 19 20 25 31 34 31 31 35 39 41 44 47 46 45 44 43 42 42 43 43 43 43 44 45 45 45 45 45 44 44 44 43 44 44 44 43 42 41 40 39 39 39 38 37 36 37 38 38 39 41 43 45 46 47 48 49 49 48 48 48 47 45
23 21 21 25 32 35 33 30 35 41 44 45 47 47 46 46 45 44 45 47 47 46 46 45 45 46 46 46 46 45 46 46 46 46 45 44 42 40 38 38 39 39 39 37 36 36 37 38 40 40 41 43 45 47 48 49 50 49 47 46 45 44 43

ECMWFFLT2_500_spd_015.txt.gz
Wind_Speed
34 34 38 45 48 48 50 54 53 53 52 42 34 33 30 26 30 33 30 30 29 24 29 36 34 33 36 31 25 23 21 20 21 20 21 22 22 21 15 9 9 11 12 13 14 13 13 12 12 12 12 13 14 17 19 21 21 20 18 18 19 19 18
35 35 37 43 51 52 48 48 50 52 52 47 41 37 33 31 33 33 31 31 30 29 34 37 34 35 35 31 27 23 21 24 25 24 25 24 24 22 16 14 15 14 13 13 13 13 12 12 12 11 11 12 13 15 17 18 19 17 17 18 18 18 18
36 38 38 41 49 54 51 44 44 50 53 52 48 42 38 37 37 34 30 32 33 34 36 34 32 35 35 32 30 26 24 23 24 27 27 24 23 22 18 18 20 17 13 12 13 13 13 13 12 10 11 12 11 11 14 16 17 17 18 18 18 18 18
39 40 40 41 45 51 54 50 42 43 51 54 49 44 41 38 38 36 31 31 34 33 32 33 30 28 29 33 35 33 27 21 20 26 26 22 21 20 18 20 22 19 15 14 13 14 14 14 13 11 11 11 10 9 11 14 16 18 19 19 18 19 19
42 42 40 39 41 46 53 58 53 43 45 49 47 45 45 41 37 37 34 33 32 27 26 30 29 23 24 31 34 34 28 22 22 24 23 24 25 21 19 21 22 22 19 16 15 15 16 15 12 11 11 11 10 9 10 13 15 17 19 20 20 21 21
42 43 39 37 39 42 47 55 60 53 42 41 47 51 47 42 41 40 36 34 30 24 23 26 29 26 25 26 27 29 26 24 24 19 18 24 26 23 21 22 23 24 22 18 17 16 17 14 11 12 12 12 11 9 9 12 14 15 18 19 20 21 21
37 41 40 40 38 39 41 46 54 57 50 40 43 51 49 44 43 41 38 36 30 23 22 26 30 30 27 24 26 31 30 25 22 17 13 23 25 23 23 23 23 23 20 18 16 16 16 14 13 14 14 13 13 10 9 10 11 13 15 17 18 20 19
34 34 40 41 39 38 41 43 45 53 59 50 42 47 50 48 44 39 40 42 35 27 25 25 26 27 27 29 33 35 31 24 20 16 16 27 29 26 25 24 22 21 20 18 17 16 16 16 16 16 17 15 14 13 10 8 10 12 13 14 16 17 17
37 35 40 42 42 43 44 47 48 52 57 55 51 50 46 47 49 44 43 44 37 31 28 27 25 25 25 29 34 34 31 29 24 20 22 28 27 27 27 24 22 22 22 21 19 18 17 18 18 18 19 18 15 15 13 10 11 13 13 14 14 14 15
44 43 44 44 43 44 44 46 50 53 50 50 58 61 53 51 53 51 47 43 36 33 30 29 30 29 26 28 33 32 32 32 30 27 29 25 22 27 29 25 24 25 24 23 21 20 19 19 19 19 20 21 18 16 14 12 14 15 15 15 14 13 14
45 43 40 39 39 39 38 41 45 48 46 46 53 61 62 59 54 52 52 46 39 37 33 29 31 34 32 32 38 38 33 30 31 37 39 32 25 29 31 28 28 27 26 25 23 22 21 20 20 20 21 22 20 16 14 14 15 16 16 16 15 14 15
42 39 36 37 39 36 31 34 39 42 44 45 47 51 59 62 56 56 58 52 47 46 38 28 30 34 36 34 40 43 39 35 36 39 41 37 34 33 33 32 31 30 28 27 24 23 22 21 21 21 21 23 20 17 14 14 16 16 16 15 15 16 16
40 38 37 36 34 32 29 30 36 40 42 46 47 47 53 58 56 58 58 52 53 57 50 39 33 31 34 36 37 41 39 37 38 39 37 37 38 38 37 35 33 32 30 26 25 24 22 21 21 21 22 23 21 18 16 15 16 16 15 15 16 16 16
41 39 38 37 33 29 29 32 34 35 35 40 46 48 51 53 53 56 55 48 51 59 59 56 50 40 33 34 36 39 39 36 36 38 38 37 38 39 39 37 34 33 29 25 24 23 22 22 22 22 23 22 20 19 17 15 15 15 15 16 15 15 16
44 41 37 39 39 34 31 32 32 31 31 34 39 44 49 50 50 54 57 55 55 56 54 56 61 56 46 38 35 35 37 38 39 40 40 40 39 38 37 36 35 32 28 25 24 23 22 23 23 24 24 22 20 20 19 16 15 15 16 16 16 16 17
45 41 37 38 40 39 39 38 35 33 33 34 35 38 43 47 49 53 58 59 60 59 53 50 56 63 61 56 51 44 39 39 42 42 41 41 39 36 34 35 35 32 28 25 23 22 23 24 25 25 24 23 21 21 20 17 16 17 18 18 18 19 18
44 40 39 37 36 39 44 43 38 35 35 34 33 35 39 42 46 50 57 60 58 59 59 56 58 64 63 60 60 58 50 44 43 43 41 39 37 36 36 37 36 32 28 25 23 23 24 26 26 25 25 24 23 23 22 20 19 20 21 21 22 24 24
44 41 38 35 38 43 41 36 34 36 38 36 35 36 38 39 40 41 48 53 51 51 57 59 60 64 63 56 55 58 55 50 49 46 41 38 38 40 41 40 38 34 27 24 25 25 25 27 26 27 27 26 25 26 26 25 23 23 23 23 23 26 27
44 42 40 39 42 41 36 31 30 33 36 37 38 39 39 39 39 38 39 42 42 43 49 55 57 60 61 56 53 54 54 51 52 49 42 39 41 43 42 38 36 32 28 26 28 27 26 28 29 29 29 27 27 28 28 28 26 24 23 23 23 25 26
44 44 44 44 41 35 33 34 31 29 31 33 36 41 41 40 40 39 38 37 37 39 42 44 47 52 57 55 52 52 52 51 53 51 43 40 44 45 42 38 34 30 29 30 31 29 28 30 31 30 30 29 29 30 30 30 29 26 24 23 23 24 26
45 44 43 41 38 36 36 36 34 34 34 33 35 40 43 41 39 38 39 38 34 34 37 40 41 44 49 52 51 51 51 51 53 51 45 44 47 45 42 39 34 31 32 33 33 31 30 32 33 32 31 30 30 32 33 33 30 29 27 26 26 26 27
45 45 43 41 40 40 39 37 37 37 36 33 34 36 37 38 38 36 37 39 38 34 33 37 38 38 41 45 48 49 49 50 53 52 47 46 47 44 40 38 35 34 35 36 35 33 32 34 36 34 32 31 33 35 35 34 33 33 32 31 31 31 31
45 45 44 41 40 40 40 39 38 37 36 35 34 35 33 32 36 37 34 36 38 38 35 34 35 38 41 42 43 46 47 48 50 50 45 43 44 43 42 40 37 35 36 37 36 34 34 35 36 35 33 35 37 37 36 36 37 37 36 35 35 35 36
46 46 44 42 41 42 42 40 38 39 38 34 34 36 32 29 34 38 36 32 33 37 41 40 38 40 39 37 38 41 44 47 48 47 44 43 43 43 43 42 39 37 38 39 38 36 35 35 35 37 38 40 39 38 37 38 39 40 39 39 39 39 40
48 46 43 42 42 42 40 37 37 38 34 29 29 32 31 30 33 36 36 35 33 35 40 42 42 42 37 34 37 41 43 45 46 43 43 43 41 41 44 44 42 39 39 40 40 39 37 36 37 40 42 41 39 39 40 41 41 42 42 42 42 43 43
51 48 45 43 43 42 39 36 35 33 29 28 28 27 27 30 32 32 35 37 35 34 34 36 39 40 38 37 41 43 42 42 40 39 41 42 41 42 45 45 42 41 41 43 43 42 40 39 40 43 43 41 41 42 43 43 43 43 43 43 44 44 45
50 49 48 46 44 42 39 36 34 33 31 29 27 25 26 29 30 31 34 35 34 34 33 32 33 36 37 39 41 41 39 38 37 37 40 42 43 44 45 44 43 43 44 45 45 43 42 42 42 43 43 43 43 44 44 44 43 43 43 44 45 46 47
48 48 47 46 44 44 42 38 35 33 32 31 29 27 27 28 28 29 32 33 32 31 31 31 30 31 34 37 36 35 34 34 34 35 38 40 42 43 44 45 45 45 46 47 47 46 45 44 43 43 43 44 45 45 44 44 44 44 45 46 46 48 50
47 47 48 47 46 46 45 39 34 33 31 32 34 33 30 27 26 27 30 33 33 31 29 30 29 28 30 35 36 35 33 33 34 34 36 38 39 42 44 46 46 47 47 48 48 47 45 44 43 43 44 45 46 45 45 45 45 46 47 47 48 50 51
50 50 50 50 49 47 42 37 35 34 33 33 35 35 33 29 27 28 31 33 33 31 30 31 31 29 29 33 38 39 36 34 33 34 34 36 37 40 42 43 45 46 47 48 48 46 45 44 44 44 45 45 45 45 44 44 45 46 46 47 48 49 49
50 50 50 49 49 46 40 35 33 33 33 34 35 36 35 32 30 30 32 33 32 32 31 32 33 32 30 31 37 42 40 37 36 35 34 35 36 38 39 41 42 45 47 49 49 48 47 46 45 45 45 45 45 45 44 44 44 45 45 47 49 49 49
49 50 49 47 45 44 42 38 33 32 33 35 36 36 37 35 34 33 32 33 34 34 34 34 33 32 30 30 35 42 42 39 37 37 36 35 37 38 39 40 41 43 45 48 49 49 47 46 46 47 46 46 46 46 46 45 45 45 47 48 49 50 50
49 50 49 44 42 43 43 40 36 34 35 36 36 37 37 36 35 32 31 33 35 35 35 33 31 30 30 30 33 41 45 42 39 37 36 36 37 38 39 40 40 41 43 45 48 48 48 48 48 48 47 47 48 48 47 46 46 47 47 46 47 49 49
45 46 46 44 42 41 40 38 36 34 35 37 37 37 37 36 34 32 30 32 34 35 35 34 32 32 32 32 33 38 43 43 40 38 37 37 38 39 39 40 41 42 43 45 46 48 48 49 49 48 46 47 47 47 45 45 45 45 44 45 45 47 48
38 39 40 39 39 38 36 36 35 35 35 37 36 36 37 37 35 32 31 32 35 37 36 35 34 34 36 37 38 38 40 42 41 40 39 40 40 41 41 42 43 44 45 46 47 48 49 49 48 47 46 46 46 45 45 45 44 42 43 44 46 47 48
34 32 31 31 31 32 33 34 35 35 36 36 34 34 36 38 36 34 33 34 37 39 39 38 36 36 37 39 40 41 41 42 42 41 41 42 42 43 44 44 45 47 48 48 49 50 50 49 47 46 45 44 44 44 45 44 43 43 44 45 46 48 48
34 29 27 28 28 29 31 32 32 33 34 33 32 33 35 37 38 37 37 38 39 41 43 42 40 38 39 41 42 43 43 43 43 43 43 44 46 47 47 48 48 49 49 50 50 51 50 49 47 45 44 44 44 44 44 43 43 44 46 46 47 48 48

ECMWFFLT2_500_spd_021.txt.gz
Wind_Speed
32 32 29 27 31 32 30 32 34 30 31 39 43 42 40 37 37 40 39 37 35 34 35 32 29 29 28 27 26 26 29 31 30 27 24 24 26 24 21 18 18 20 21 21 20 18 19 21 21 20 19 20 22 23 24 25 24 23 21 20 21 22 22
33 32 31 31 33 32 32 34 32 27 31 39 42 42 40 38 42 45 43 39 35 34 35 30 25 26 28 26 23 23 27 31 33 30 24 23 22 20 19 19 19 21 22 23 23 22 22 21 20 20 19 20 21 21 22 22 22 22 21 20 21 22 23
34 32 33 36 36 35 33 33 31 31 36 40 42 45 43 43 47 48 46 41 36 36 36 29 23 24 27 25 23 22 22 27 33 31 26 24 21 19 20 20 19 18 19 20 23 24 24 22 21 21 22 22 21 20 19 18 19 20 21 20 21 23 24
35 36 39 40 40 37 33 33 34 35 37 38 40 43 45 47 48 48 46 42 38 38 37 30 25 27 28 25 22 21 18 21 29 30 27 24 20 19 21 20 17 14 15 19 22 24 24 22 22 22 23 23 22 20 17 15 15 16 17 17 19 21 23
36 41 45 42 40 38 35 36 38 39 39 37 36 38 43 46 48 48 48 48 46 41 36 32 29 30 31 26 23 23 21 21 25 28 27 23 20 20 21 20 17 15 17 21 23 24 24 23 22 22 23 23 22 20 17 13 12 12 12 13 14 17 20
40 43 44 42 40 38 35 36 37 38 39 39 38 40 42 43 45 47 47 50 48 39 31 30 30 29 27 25 24 25 25 24 24 24 25 24 22 22 22 20 18 17 18 20 21 23 25 24 21 21 23 23 21 18 15 11 10 9 9 9 10 13 16
41 39 38 40 44 41 37 37 37 36 39 42 44 44 42 41 41 43 45 49 47 38 27 20 21 24 23 25 27 27 26 25 23 23 27 28 25 24 25 24 19 17 18 18 18 20 24 25 22 20 21 22 20 17 13 11 8 8 8 7 8 10 12
41 38 35 36 42 43 42 41 39 37 39 43 45 44 40 38 39 41 43 46 45 42 36 24 20 24 25 27 30 29 26 23 23 23 25 29 28 27 28 27 23 20 21 22 21 20 21 24 23 21 21 22 20 17 14 12 9 9 8 7 7 9 10
45 42 38 36 40 46 48 46 42 41 40 40 42 43 40 40 42 42 43 43 41 39 38 34 27 25 27 29 29 24 22 23 25 23 21 25 28 27 29 28 24 22 23 26 25 22 22 23 23 23 24 23 21 18 16 14 12 11 10 9 8 9 10
52 50 48 45 44 47 50 48 45 42 40 39 40 43 44 45 45 43 43 43 38 34 34 34 33 30 32 34 31 25 23 26 27 23 19 22 24 27 30 29 25 23 25 28 29 26 24 23 24 25 25 23 22 20 19 17 16 15 13 12 11 11 11
53 51 50 47 43 43 48 49 47 43 40 38 38 42 46 46 45 44 43 41 36 32 32 29 30 34 36 37 36 30 26 27 27 25 21 21 22 26 29 29 27 26 28 30 31 30 27 24 24 25 25 24 24 23 22 20 18 17 15 15 14 13 13
50 47 46 47 46 43 44 46 47 46 44 40 39 42 44 44 46 47 44 41 35 34 34 27 23 28 31 30 34 34 27 23 26 29 28 26 26 27 29 29 29 30 31 33 35 34 30 26 25 26 27 27 26 25 24 22 21 20 18 16 16 15 15
47 44 44 47 48 44 38 40 44 47 47 44 42 43 40 41 48 47 42 43 39 34 34 30 25 26 26 25 29 34 32 28 28 32 32 31 30 30 31 32 34 35 35 37 39 37 32 29 27 28 28 29 28 27 25 24 22 21 19 17 16 16 16
45 45 45 46 47 44 38 37 42 45 47 47 45 44 40 38 41 41 40 47 47 40 35 33 30 27 25 24 28 33 37 37 36 36 34 32 31 30 32 34 36 38 39 40 41 40 36 33 31 30 30 31 30 28 26 25 24 23 21 18 16 15 16
45 46 45 45 48 50 45 39 37 39 42 44 43 42 40 38 37 37 39 45 49 46 40 36 37 33 28 27 30 34 38 39 39 39 37 35 33 31 33 36 39 41 43 42 40 38 36 35 32 30 31 31 29 28 27 26 25 25 23 20 17 15 16
50 43 39 41 46 51 52 47 40 36 37 37 35 34 36 37 38 38 39 42 43 44 43 40 41 41 36 33 34 36 37 38 39 40 39 38 36 35 37 41 44 46 45 44 41 37 35 34 33 31 30 30 29 28 28 28 28 28 26 23 19 16 17
57 45 38 39 39 45 56 59 50 40 36 35 32 30 32 36 37 37 39 40 39 40 44 45 44 46 45 40 37 37 36 35 35 37 41 42 41 40 42 45 48 49 47 47 46 42 38 36 34 32 31 32 32 31 30 30 30 30 29 26 21 19 19
62 52 45 41 38 43 56 60 51 44 39 35 33 33 34 35 35 33 32 32 32 35 41 44 45 49 50 49 45 40 38 38 36 37 42 45 43 44 47 48 48 49 48 47 44 41 39 37 35 35 35 34 34 34 33 32 32 30 30 29 25 21 21
65 58 50 46 45 45 46 45 44 47 46 40 36 36 35 33 32 32 30 27 28 31 35 38 42 47 50 52 52 48 43 41 41 42 44 44 43 45 48 49 48 48 47 45 41 38 36 33 33 36 38 36 36 36 35 34 33 31 30 30 28 24 23
66 62 55 53 50 45 40 39 42 46 49 46 43 40 37 34 34 32 29 27 28 31 31 34 39 45 48 50 52 54 52 47 45 46 47 45 43 44 47 46 46 48 49 47 44 41 36 32 32 36 38 37 37 37 37 35 34 33 32 32 31 28 25
65 64 59 57 52 44 44 47 45 45 51 53 49 45 42 38 39 39 36 33 33 34 33 33 38 43 46 48 48 50 55 56 54 52 51 48 47 47 46 43 44 48 50 48 46 46 43 37 33 35 38 40 39 38 37 36 36 36 34 33 33 31 28
62 64 59 58 57 51 48 50 47 44 48 54 54 53 50 45 44 46 46 43 40 37 35 34 37 39 41 43 44 45 50 57 60 60 57 53 51 51 48 44 43 46 48 46 44 47 49 45 39 37 38 40 39 39 38 38 38 38 36 35 35 33 31
56 60 59 59 60 57 51 48 45 42 43 48 51 54 55 53 51 51 52 51 48 43 40 39 38 38 39 40 41 42 45 50 56 60 62 60 58 56 53 48 47 49 50 48 46 47 48 46 43 41 39 39 39 40 39 39 40 39 38 37 36 35 33
51 54 60 61 60 59 58 53 47 46 47 48 48 50 54 54 52 53 54 55 52 48 45 44 41 41 42 43 44 43 42 44 48 51 56 61 64 64 62 57 53 53 53 52 52 53 49 44 42 43 42 39 40 42 42 40 41 41 39 38 38 37 36
52 50 54 59 58 59 60 56 50 49 50 51 49 50 51 51 51 52 53 53 53 50 47 47 47 46 46 46 46 46 41 39 41 42 44 50 55 60 65 65 60 58 56 55 57 60 57 49 46 48 49 45 42 45 48 46 44 43 41 40 40 40 39
54 50 48 52 55 57 57 54 50 48 47 49 52 52 52 52 52 50 49 49 51 50 48 48 49 51 53 51 50 48 43 38 38 40 41 42 42 46 54 61 65 67 65 62 62 65 65 60 55 56 59 55 51 52 53 52 48 45 43 43 43 42 40
53 53 51 50 50 50 49 49 49 49 48 50 53 53 53 54 53 51 47 46 46 46 48 51 52 53 54 55 54 51 46 41 41 42 43 42 41 41 42 46 55 65 70 70 69 67 68 66 64 64 62 58 55 56 56 54 52 49 46 45 44 43 41
55 54 53 51 47 45 45 46 47 49 51 53 55 55 54 54 55 52 47 43 43 43 44 48 52 54 53 55 55 52 49 47 47 47 48 48 47 46 43 40 42 46 54 64 71 73 72 70 70 71 65 56 54 57 58 57 55 52 49 48 45 44 42
56 56 52 49 46 45 46 48 50 50 51 52 53 53 52 52 53 51 46 43 43 44 43 44 47 49 50 53 56 55 53 53 54 53 53 52 51 50 47 44 43 42 43 50 60 70 76 76 76 77 72 61 56 58 60 60 59 55 52 51 48 45 43
54 55 52 48 45 43 46 50 53 54 53 51 50 48 45 45 47 46 44 45 46 46 45 45 45 45 45 49 54 55 54 55 57 58 57 55 54 53 49 46 47 48 48 48 52 59 67 70 71 73 71 62 58 61 63 62 61 58 55 54 51 47 43
53 54 54 51 46 41 42 47 50 53 55 54 52 48 42 40 42 43 42 45 47 45 44 44 44 45 44 45 49 51 51 52 56 59 59 56 55 54 51 48 48 50 51 54 56 60 63 61 58 62 64 60 59 63 65 64 62 60 57 56 54 49 44
56 57 56 56 52 44 42 45 47 49 53 53 50 47 43 39 39 41 42 42 43 44 43 42 42 43 44 44 46 48 50 52 54 57 58 58 56 54 53 52 50 50 52 57 60 64 66 61 54 53 56 60 63 66 68 66 63 62 61 60 56 52 47
59 60 57 57 57 51 45 47 49 48 48 49 46 43 41 38 37 37 39 40 41 42 43 42 42 42 44 45 45 46 49 52 54 54 55 56 56 56 56 55 51 50 53 57 61 63 65 62 57 53 52 58 66 69 68 68 67 65 65 62 56 52 48
60 62 60 59 59 54 47 48 53 50 44 43 45 43 39 37 37 37 38 40 40 40 40 40 41 42 44 45 45 46 48 51 52 52 51 51 52 55 56 56 53 53 57 61 61 61 60 59 59 56 54 56 64 66 63 62 63 61 57 52 47 44 40
64 61 60 58 59 58 49 47 53 56 48 40 41 43 40 36 35 35 35 38 40 39 39 39 40 41 42 44 45 46 47 47 47 48 47 46 47 49 51 52 51 52 58 64 62 56 54 54 57 58 55 52 54 56 54 51 49 47 45 42 38 34 30
71 66 63 60 59 60 54 47 50 57 54 45 41 43 41 37 35 35 34 36 38 39 39 40 41 42 42 43 45 47 47 44 43 43 44 44 44 44 47 50 47 42 40 50 54 50 49 51 54 53 49 44 44 45 46 43 38 36 37 36 30 25 24
66 68 68 65 61 58 52 46 45 50 50 43 40 42 43 41 39 38 37 36 37 39 41 41 42 42 42 42 44 46 45 41 39 38 39 39 41 42 44 46 44 37 31 37 46 46 42 39 39 38 37 36 37 40 41 39 34 33 34 31 26 24 26

ECMWFFLT2_500_spd_024.txt.gz
Wind_Speed
30 27 25 25 28 29 28 29 32 32 28 29 35 38 38 42 47 44 42 47 47 44 43 39 36 34 30 29 27 26 27 27 25 25 25 24 23 23 22 22 20 19 20 21 22 22 21 21 21 21 20 18 18 18 18 19 21 21 22 24 25 26 25
31 27 26 28 30 30 31 32 30 27 25 28 34 39 39 42 46 43 41 46 47 45 44 40 36 35 33 31 28 24 25 25 23 22 22 24 24 23 23 24 22 20 21 22 22 23 22 21 22 22 20 19 18 18 18 19 20 21 23 24 26 27 27
31 29 30 33 34 33 32 31 28 28 30 31 34 38 40 41 42 39 36 41 44 43 41 39 37 36 34 31 27 23 23 22 20 18 18 20 23 24 24 23 22 21 21 22 23 23 22 22 23 23 21 18 17 18 18 18 19 21 22 23 25 27 28
33 34 38 39 37 35 33 33 33 34 34 34 33 35 37 38 39 36 32 35 37 36 37 39 37 33 30 28 25 23 22 20 18 16 15 16 18 23 26 24 22 21 20 21 22 21 22 23 24 24 20 17 16 17 18 18 19 20 20 21 23 26 27
38 41 44 42 38 36 36 37 38 38 36 36 36 36 37 38 40 38 34 34 31 27 30 36 37 32 28 26 24 24 23 20 17 16 17 17 16 18 24 26 25 22 21 21 22 21 22 24 25 24 20 17 16 16 17 18 19 19 19 20 21 23 26
44 44 42 40 39 37 36 37 38 37 36 36 37 39 39 39 41 40 37 34 30 24 24 29 33 34 33 31 28 27 25 20 17 17 19 21 18 16 20 25 25 23 22 23 23 22 22 22 23 21 19 18 17 16 16 17 18 19 18 19 19 20 23
45 43 40 40 40 38 36 37 36 35 37 39 39 40 40 38 40 40 38 38 33 25 21 23 29 34 33 30 29 28 25 21 19 19 20 23 22 17 18 22 23 22 22 22 22 22 20 19 20 20 20 20 19 17 16 16 17 16 17 17 18 18 19
43 42 41 43 42 40 40 40 37 36 38 39 37 37 38 38 40 40 40 42 36 26 21 20 26 31 29 25 25 25 24 22 22 22 21 22 23 20 17 19 20 21 22 22 22 22 20 19 18 19 20 21 21 20 18 16 16 16 16 18 17 16 16
49 46 46 48 48 46 45 43 40 38 38 37 38 38 38 40 42 41 43 45 39 27 20 19 23 28 27 24 25 24 22 24 25 23 21 23 24 22 19 20 22 24 24 25 24 22 21 20 18 17 18 21 22 22 19 17 17 17 18 19 18 17 15
57 55 54 53 51 50 48 46 43 41 39 38 39 40 42 45 45 42 44 46 40 30 23 21 23 28 28 26 26 26 24 26 28 26 25 26 25 23 21 21 24 29 30 28 26 24 22 21 19 18 19 21 23 23 21 19 19 19 20 21 20 19 17
59 55 51 49 49 50 50 48 47 44 40 39 39 42 46 46 43 42 43 43 39 33 28 24 23 28 31 28 27 28 27 27 28 29 28 26 23 23 23 21 23 31 36 33 28 25 24 23 22 21 21 23 25 24 22 22 22 22 23 23 22 21 19
61 55 48 45 47 49 49 48 48 46 42 39 41 46 47 45 43 43 41 38 38 36 31 27 24 24 29 32 31 29 26 27 31 32 31 27 24 23 25 23 21 27 34 35 32 30 28 26 25 24 23 24 25 25 24 25 25 24 25 24 23 22 22
61 57 51 46 47 49 49 48 48 48 46 43 43 45 43 42 43 42 37 35 37 35 33 31 25 18 20 29 34 30 25 25 30 31 30 29 26 24 25 24 22 24 29 33 34 33 31 30 29 28 25 24 25 25 26 27 26 25 25 23 20 20 22
61 57 53 50 49 50 51 50 49 49 48 46 44 42 40 39 41 39 34 35 36 36 35 32 25 18 16 23 33 35 32 29 28 28 30 32 33 31 29 26 23 23 26 29 32 33 32 32 33 31 27 24 24 25 25 26 27 26 25 22 18 17 19
62 59 54 51 51 52 52 52 51 51 50 47 44 43 40 40 41 38 35 36 36 36 37 35 29 26 23 24 31 35 36 35 32 30 31 35 38 36 30 25 23 24 27 30 33 34 35 36 36 33 29 25 24 25 26 28 29 28 26 23 19 16 17
61 58 52 49 51 52 54 56 54 53 51 48 46 46 43 41 41 39 38 40 37 33 34 35 34 32 31 30 31 32 34 35 34 32 31 32 33 32 30 28 28 29 30 34 36 37 37 38 36 32 30 28 26 27 29 31 32 31 27 25 22 18 18
59 58 51 43 43 48 56 62 59 52 49 48 48 45 40 36 36 37 41 42 36 30 31 34 36 37 36 34 34 34 36 37 37 36 34 33 34 36 36 36 35 33 34 36 39 38 38 37 34 32 32 31 31 32 31 32 34 33 29 27 25 23 22
59 58 50 42 43 51 59 62 60 54 50 48 46 41 35 32 33 36 40 39 34 32 34 34 37 40 39 37 37 38 39 41 41 40 40 40 41 41 43 43 41 38 36 37 39 38 37 35 33 33 34 36 37 36 34 33 34 33 30 28 28 26 25
60 56 51 47 50 56 59 59 59 58 53 46 42 39 35 34 35 36 36 35 34 36 36 35 38 43 43 41 42 43 43 43 43 42 44 46 46 44 45 47 47 44 41 39 39 38 37 36 36 37 39 40 41 41 39 36 35 34 32 30 30 30 28
63 58 51 49 52 54 56 57 57 59 57 49 43 42 40 40 41 38 37 36 34 35 37 37 39 43 47 47 47 47 47 45 43 42 43 46 48 47 47 48 48 49 46 42 40 40 39 40 40 41 44 45 44 43 43 42 41 39 35 32 32 32 32
68 62 51 44 47 51 54 55 52 55 60 57 49 45 43 43 44 42 40 38 36 35 37 39 39 41 45 49 51 51 50 49 47 45 43 42 43 44 45 45 45 46 46 45 44 44 44 44 44 45 47 47 46 44 43 41 42 41 37 33 32 33 34
68 68 56 45 45 51 54 54 49 48 57 62 55 47 44 44 45 46 44 42 40 39 37 38 40 40 41 45 50 53 53 53 51 49 47 45 42 41 41 41 42 42 44 46 47 47 48 49 49 49 50 50 50 48 44 40 39 39 36 34 33 34 35
64 68 64 52 46 51 55 56 50 45 52 62 60 52 47 46 46 49 49 45 43 42 40 39 39 39 39 41 45 49 53 57 56 54 51 48 46 45 44 43 43 44 45 45 46 47 48 49 51 52 53 53 53 52 48 44 41 39 37 36 35 35 36
61 63 65 57 50 52 57 58 54 47 49 58 63 61 56 51 49 50 51 49 46 45 45 42 39 38 40 40 41 43 46 51 55 57 57 55 52 51 50 49 48 48 47 46 46 47 49 50 50 52 55 56 54 52 51 50 46 43 40 38 37 37 38
62 60 60 56 51 53 57 59 57 52 49 53 62 68 64 56 53 53 51 51 51 48 47 45 41 39 40 39 39 41 41 42 45 50 55 59 59 59 58 56 54 52 52 51 50 50 51 52 52 52 54 56 54 50 50 50 48 46 44 42 40 40 42
61 62 61 57 53 55 59 60 60 56 50 51 59 68 69 63 58 55 53 53 53 51 48 47 43 41 41 40 38 39 40 39 40 42 46 51 56 60 63 63 61 59 58 57 57 56 55 55 56 56 57 58 57 53 52 51 50 49 48 46 43 44 46
55 61 63 60 57 58 62 64 63 60 55 52 55 61 65 66 63 61 58 55 52 51 50 47 44 42 42 43 42 41 41 41 41 42 45 46 47 51 55 60 63 64 64 64 63 63 62 61 60 60 60 61 61 60 59 59 56 53 52 51 49 48 49
49 55 60 62 59 59 64 67 67 65 62 57 54 55 57 61 63 63 62 59 54 51 51 50 47 46 45 46 47 46 46 45 44 44 45 46 46 46 46 50 54 58 61 64 65 67 68 68 66 65 64 64 65 64 64 63 61 58 56 54 52 52 51
46 50 58 63 61 59 64 70 71 69 67 62 56 54 54 56 59 59 61 62 59 54 53 52 50 49 49 50 51 51 51 50 48 46 46 46 47 48 47 47 48 50 52 56 59 63 65 67 67 68 69 69 68 66 64 63 63 63 61 57 55 55 54
44 46 53 59 63 62 63 70 74 72 70 65 60 57 55 55 57 56 54 56 58 57 57 56 54 53 53 54 54 54 54 53 52 50 49 49 50 50 50 50 49 50 50 51 53 54 55 56 58 62 67 71 72 71 70 68 65 64 64 62 59 61 60
45 44 48 51 59 65 65 69 74 74 72 69 65 62 59 57 58 57 53 51 52 53 55 56 55 54 54 54 54 56 56 56 55 54 53 53 54 54 53 52 52 53 53 52 51 50 49 49 50 53 57 62 65 68 72 74 71 69 69 68 66 66 68
51 45 46 47 51 59 64 67 72 73 71 70 67 64 61 59 59 59 57 55 52 49 50 52 53 52 52 52 51 53 54 55 55 55 54 54 56 57 56 56 56 56 55 55 55 54 52 52 52 51 52 54 55 56 59 63 67 69 73 76 76 72 73
60 46 46 49 50 52 58 64 68 69 67 66 63 60 59 59 59 59 58 56 53 49 47 48 50 51 52 51 50 50 51 52 52 52 51 51 53 56 58 57 57 57 58 59 59 58 57 57 57 57 57 57 56 55 54 55 57 61 68 76 79 74 68
64 50 45 50 52 52 54 58 60 60 59 57 55 54 55 56 57 57 55 52 50 47 46 46 47 48 49 50 51 50 50 51 51 50 50 50 50 52 55 56 55 55 57 60 62 63 62 62 62 63 63 62 61 61 61 59 58 59 63 70 77 77 67
62 56 48 48 52 54 55 55 54 53 53 51 49 51 53 55 55 54 51 47 44 42 42 42 43 45 47 48 49 50 50 51 50 50 50 51 51 52 54 54 52 51 52 56 59 62 65 66 66 67 67 65 64 64 65 65 64 65 65 67 71 75 73
57 58 51 48 50 52 52 53 53 50 48 45 43 43 45 46 47 48 48 47 44 41 41 40 40 42 45 46 46 47 48 48 48 48 48 48 49 51 52 51 50 49 49 50 51 55 59 62 64 65 65 64 65 66 66 67 68 69 70 68 66 68 73
51 56 54 51 51 51 50 50 51 49 46 41 35 31 31 33 37 40 42 45 44 42 42 43 42 42 44 45 45 44 44 45 47 47 47 47 48 50 50 49 48 47 47 47 47 48 50 52 54 55 57 59 61 62 63 66 70 73 72 70 67 66 67

ECMWFFLT2_500_spd_027.txt.gz
Wind_Speed
27 25 24 26 29 28 29 33 34 27 22 28 36 38 39 41 43 40 39 40 40 37 33 28 30 31 30 27 23 20 18 17 19 21 19 16 14 12 15 17 19 21 23 23 21 21 22 21 20 19 19 20 19 19 18 18 17 15 15 16 17 19 20
27 26 28 31 33 31 32 33 28 24 27 32 37 39 40 44 45 37 34 38 38 38 35 28 29 31 30 30 28 24 21 19 19 19 18 15 11 11 13 15 18 20 22 23 21 21 21 20 19 18 19 21 20 19 18 16 14 14 14 15 15 17 19
29 30 35 37 37 35 34 30 27 29 35 35 36 39 39 42 43 36 32 35 36 33 30 26 28 31 30 31 31 27 25 22 20 17 14 12 10 10 10 11 16 20 22 23 22 21 21 20 19 19 21 23 22 20 17 14 14 14 14 14 14 15 16
34 37 42 43 39 35 34 34 35 37 37 35 35 37 36 37 39 36 32 33 29 25 24 23 26 30 31 33 33 30 28 25 22 17 13 12 12 10 7 8 13 18 22 23 22 22 21 20 20 21 23 24 23 20 17 15 15 15 14 14 14 14 15
41 45 47 44 38 35 36 38 39 38 38 37 37 38 37 36 37 35 34 32 23 17 19 20 23 27 31 33 33 31 30 28 24 20 14 14 14 12 7 6 10 16 22 22 21 22 23 22 22 23 24 25 23 20 18 17 17 16 15 15 15 14 14
48 48 45 42 38 37 38 39 39 37 37 39 40 41 38 36 37 35 34 34 23 15 17 18 19 24 27 29 30 31 31 27 24 22 17 16 16 13 9 8 10 15 21 23 22 23 24 25 24 25 25 25 24 21 19 19 18 17 15 15 15 15 15
49 45 41 41 41 40 41 42 41 38 39 41 42 40 35 34 37 35 35 37 26 16 16 17 17 20 22 23 26 31 31 26 24 23 19 17 17 14 12 11 12 16 20 23 23 24 25 25 25 25 26 26 23 20 20 20 19 17 16 15 15 15 14
49 46 43 44 45 45 47 47 44 43 43 41 40 37 33 35 37 36 37 39 30 18 16 17 18 19 20 21 24 28 30 27 25 22 18 18 17 14 14 13 14 17 19 22 25 25 26 25 24 25 26 24 22 21 22 21 20 18 17 17 16 15 14
54 52 51 52 52 51 51 50 47 46 43 40 39 38 38 41 41 38 39 40 34 23 18 18 19 18 19 21 22 25 28 27 25 21 19 20 18 16 16 16 16 18 19 21 24 26 25 23 22 23 23 23 22 23 22 21 21 21 20 18 17 16 15
60 59 58 57 55 53 53 51 48 46 43 42 42 41 44 46 43 41 41 40 36 30 20 18 19 18 18 21 22 23 26 26 24 23 23 23 21 19 18 18 18 18 20 22 24 25 24 22 21 21 21 22 22 21 21 21 22 22 21 20 19 18 16
63 62 59 54 50 51 52 51 49 47 45 43 43 45 48 47 43 42 42 38 37 36 25 18 20 20 19 22 23 23 25 26 26 26 26 25 23 21 20 21 20 19 21 23 24 25 25 24 23 22 21 21 20 19 20 21 22 21 21 22 21 19 18
65 64 62 56 52 52 52 51 50 48 46 45 46 49 48 45 45 45 40 36 38 38 30 21 20 21 21 22 23 22 24 25 26 27 27 26 24 23 22 23 23 22 23 24 25 26 27 27 26 24 23 23 21 19 20 22 23 22 22 23 22 20 19
66 65 63 60 57 55 52 50 50 49 48 48 48 49 47 45 47 45 37 35 38 37 31 25 21 22 22 22 23 23 24 25 27 28 28 26 26 26 25 25 26 26 24 24 25 28 30 31 30 27 25 25 24 22 21 22 23 22 23 25 25 22 19
69 66 64 61 57 56 54 52 49 49 49 49 48 48 47 46 47 44 38 40 40 35 31 27 24 23 23 23 25 27 26 26 28 30 29 28 28 28 27 26 27 28 26 24 24 29 34 34 32 30 27 27 26 24 23 22 21 22 24 26 26 24 19
71 68 66 62 58 57 57 56 53 51 50 50 49 49 48 48 47 43 41 44 42 36 32 30 27 26 26 26 27 28 28 30 31 32 33 32 31 30 30 29 28 28 28 25 23 27 34 36 35 34 31 29 29 28 26 23 21 21 23 25 26 25 21
73 68 66 65 61 58 58 60 59 58 56 54 53 51 50 50 48 44 44 46 43 36 33 32 30 29 29 28 28 28 30 33 35 36 36 36 34 32 29 26 25 25 26 26 24 25 29 32 35 38 37 33 32 31 28 24 22 22 22 23 24 25 23
74 68 66 67 64 60 61 63 64 62 61 58 54 52 52 51 49 47 48 47 41 35 34 33 31 30 30 28 28 29 30 34 38 40 40 39 35 31 26 24 23 23 24 27 28 27 27 28 29 33 37 36 33 31 28 26 25 25 23 23 24 25 26
75 69 67 69 67 65 64 63 61 60 60 58 55 53 53 52 51 50 49 45 40 38 38 36 32 31 31 30 30 31 32 34 38 42 44 41 37 33 31 29 28 26 25 26 28 29 28 26 24 26 31 33 32 31 29 29 29 27 26 26 25 26 28
76 71 68 69 70 68 65 59 55 56 56 55 54 54 54 53 53 53 50 47 43 40 39 39 36 34 34 34 34 34 35 35 37 41 44 43 40 38 36 35 33 30 29 28 28 28 27 25 26 27 28 31 32 32 31 31 31 30 29 28 27 27 28
76 73 70 70 71 69 64 58 54 52 51 53 55 56 57 57 56 55 54 51 47 42 39 39 39 38 38 37 36 36 37 37 37 39 41 41 41 41 38 36 35 34 33 33 32 31 29 29 30 31 31 31 32 33 34 34 33 32 31 30 29 30 30
76 74 71 71 71 68 64 60 57 54 52 54 58 59 59 59 58 57 56 54 51 46 41 37 37 39 40 40 39 39 40 39 39 39 39 39 41 41 39 38 38 37 36 36 35 34 34 34 34 34 34 34 34 35 37 37 35 34 34 34 34 34 33
73 73 71 70 69 69 66 61 60 60 57 55 57 59 60 60 59 59 58 56 54 50 45 39 35 37 40 41 42 42 41 41 41 41 41 41 41 43 43 41 40 40 39 39 38 38 37 37 37 35 35 35 36 38 40 39 38 38 38 38 38 37 35
68 70 72 70 69 69 68 63 60 60 60 55 53 56 59 60 60 60 58 56 53 50 46 42 37 35 38 41 42 42 43 43 44 43 43 44 44 45 46 45 43 43 42 42 42 42 41 41 40 38 37 37 38 39 42 43 43 41 39 39 40 39 37
65 69 71 70 69 69 67 64 60 59 59 55 52 54 58 60 60 59 57 54 51 49 46 44 40 36 37 39 41 42 43 45 46 46 46 48 49 48 48 47 47 46 46 45 45 44 44 44 43 42 42 42 43 44 45 46 46 43 41 41 44 43 42
61 64 66 66 67 68 67 63 61 60 58 54 52 52 54 57 58 59 56 53 51 48 45 44 42 38 37 38 40 41 42 44 46 48 48 49 50 51 51 50 50 49 48 47 46 45 44 43 43 43 42 43 45 45 46 47 48 46 43 43 46 46 46
59 57 61 62 63 65 66 63 60 60 60 56 51 51 51 52 56 58 57 55 52 48 45 44 43 41 39 38 39 41 41 42 44 48 49 50 51 52 53 53 52 52 49 47 47 47 44 43 43 43 44 44 45 45 46 47 47 46 44 44 46 46 45
61 54 56 59 60 61 63 62 60 58 59 56 51 51 51 51 53 56 57 56 54 51 48 45 44 43 41 40 40 41 41 40 41 44 47 50 52 52 53 54 53 53 52 51 51 51 49 48 47 47 47 47 47 47 48 47 47 47 47 46 47 47 47
63 56 54 56 60 62 61 62 61 59 57 55 51 50 50 50 52 55 58 59 57 54 51 48 46 45 43 42 42 42 41 40 40 41 43 46 49 51 53 55 56 55 54 54 54 55 54 53 53 52 52 51 51 51 51 50 50 51 51 50 50 51 52
63 57 51 51 58 64 62 62 63 60 56 54 52 50 50 51 53 55 59 62 61 57 54 52 49 48 46 44 44 43 43 42 40 41 42 43 43 45 47 50 53 54 54 54 55 55 55 55 55 55 54 54 55 54 54 54 54 54 54 53 53 54 54
62 61 52 46 53 63 65 64 65 63 60 60 60 58 56 55 56 57 60 63 65 62 58 55 53 52 49 47 45 43 43 43 41 41 42 43 42 42 42 42 44 47 48 49 50 51 52 52 53 53 54 54 54 53 54 56 57 57 57 56 56 56 55
58 65 59 47 49 62 67 67 68 67 65 63 62 61 62 62 61 61 61 63 66 66 63 59 57 55 54 51 49 47 46 46 45 44 44 44 43 43 43 43 43 43 44 45 46 46 47 49 51 52 52 52 52 53 54 55 57 58 58 59 60 61 60
53 64 65 50 48 59 66 66 69 69 66 62 58 56 59 62 63 64 62 61 64 67 67 64 61 58 57 55 53 52 50 50 50 48 47 47 46 45 46 47 47 47 47 47 48 47 47 48 49 51 51 50 50 51 52 54 55 57 59 60 62 63 64
49 62 68 55 50 57 61 64 70 68 62 61 58 53 50 50 55 62 64 61 61 64 67 68 67 63 60 57 55 54 53 52 52 52 51 50 49 49 49 50 50 50 49 49 49 49 49 49 49 50 50 49 50 50 51 52 53 55 57 59 60 62 62
44 60 71 61 52 55 57 62 71 69 60 59 58 52 46 44 46 53 60 59 58 61 63 66 69 69 66 62 59 57 56 55 54 55 55 54 53 53 53 54 53 53 53 53 53 53 52 52 53 52 52 52 52 51 51 52 53 54 56 58 59 59 59
39 54 72 66 54 55 58 61 68 68 59 56 53 46 45 49 50 50 54 56 56 57 57 58 62 66 67 66 63 61 61 60 59 58 58 58 58 57 57 58 57 55 55 56 57 57 57 57 57 57 58 57 55 53 52 52 54 55 55 57 59 60 61
37 45 69 72 59 57 59 59 64 67 62 58 53 40 33 42 53 57 57 57 57 56 55 54 55 58 61 62 61 60 59 59 60 61 61 62 62 61 60 60 58 56 55 55 55 55 54 54 54 56 57 58 57 56 55 55 56 56 57 60 62 65 68
44 40 60 73 67 58 53 50 57 65 64 60 59 48 31 29 45 59 63 62 61 59 56 54 54 54 54 55 55 56 57 58 59 60 61 61 62 62 62 61 59 57 55 55 54 52 50 49 50 52 53 54 55 55 54 55 55 55 57 60 63 67 70

ECMWFFLT2_500_spd_030.txt.gz
Wind_Speed
29 28 28 31 32 30 31 33 30 23 23 29 34 35 36 38 40 37 32 29 22 20 21 16 14 16 18 18 16 16 18 18 20 21 21 21 19 17 16 14 12 10 13 17 19 19 19 20 20 20 19 17 16 16 17 17 17 16 14 14 14 15 16
28 29 32 35 35 34 36 32 25 25 30 33 35 36 36 40 42 36 30 28 24 22 20 16 14 14 17 19 17 17 17 18 19 19 19 20 18 17 15 14 14 13 14 18 20 21 20 20 21 20 20 19 19 19 18 17 16 14 14 15 15 15 15
31 33 37 39 39 38 36 30 28 33 37 35 36 37 35 37 39 32 26 25 24 19 14 12 14 13 14 18 18 18 17 18 18 16 16 17 18 19 18 17 16 15 15 16 19 22 21 19 21 21 21 21 21 20 18 17 16 15 15 15 14 14 14
37 40 43 43 40 37 35 33 35 38 37 35 37 38 35 35 35 31 26 22 16 12 12 12 12 12 14 17 18 18 18 17 17 16 15 15 16 19 20 18 16 13 12 14 18 22 22 20 20 21 22 23 22 21 19 16 16 16 15 14 13 13 14
44 47 48 44 39 37 36 37 38 37 38 38 38 39 37 35 34 31 28 19 6 4 10 13 12 12 13 15 17 19 19 19 19 17 16 15 14 18 21 18 15 13 11 12 17 21 23 22 22 23 25 24 23 22 20 18 17 16 15 14 13 14 14
49 50 47 42 38 38 39 39 38 37 38 39 40 40 37 34 33 30 29 25 11 7 10 12 14 14 12 13 15 17 18 20 20 18 17 16 15 18 21 18 15 13 10 12 16 20 24 25 24 25 25 25 24 23 20 19 18 16 15 14 14 15 14
51 49 46 43 41 41 42 43 41 39 41 42 42 40 34 33 34 30 32 30 17 11 13 14 15 15 14 14 15 16 18 19 20 19 20 19 18 20 22 20 17 14 11 14 16 19 24 25 25 26 26 25 25 23 22 21 18 16 15 15 16 16 14
51 50 49 48 47 46 48 48 44 44 45 44 42 38 34 37 38 34 35 33 18 12 13 15 16 17 17 15 14 15 17 19 21 22 22 21 20 23 24 22 21 17 13 15 18 20 22 25 25 26 26 26 25 23 23 22 19 16 16 18 18 16 14
53 53 53 54 53 53 54 52 48 47 45 43 42 40 39 42 41 37 37 34 22 15 15 17 19 19 18 17 15 15 16 19 21 22 23 23 23 24 25 25 24 21 16 16 19 19 19 22 24 25 26 26 25 23 22 22 20 19 19 20 18 16 15
57 56 56 57 57 56 56 55 52 49 46 45 44 42 44 46 42 39 39 34 24 18 18 19 20 20 19 18 17 17 16 17 20 21 23 24 24 25 26 26 25 25 21 19 20 19 17 19 22 24 25 25 25 23 21 21 22 22 22 21 19 18 17
59 58 57 58 58 58 58 57 54 52 49 47 45 46 49 47 42 41 39 33 29 24 20 19 21 22 21 20 19 19 18 17 19 21 23 25 25 26 27 26 25 25 24 22 22 20 16 16 19 22 24 24 23 22 20 21 23 23 23 22 20 19 17
61 60 58 59 59 59 60 58 56 54 51 49 49 51 51 46 45 44 36 30 31 29 22 21 21 21 21 20 20 20 20 19 20 21 22 24 26 27 28 28 26 26 26 25 24 22 18 17 18 20 23 23 22 21 20 22 23 23 23 22 21 19 18
64 62 61 60 59 60 60 59 57 55 53 51 51 52 49 47 48 43 32 30 34 31 26 22 20 21 22 21 22 23 23 22 20 21 22 23 24 25 27 27 26 26 27 26 25 23 19 18 18 20 23 23 22 21 21 22 22 22 22 22 20 19 18
66 65 64 62 61 61 60 59 58 57 55 53 52 52 49 48 49 43 36 37 38 33 29 24 21 23 25 25 26 27 26 24 22 22 23 23 23 24 26 27 26 27 28 27 25 23 20 18 19 21 23 23 23 22 21 21 20 19 20 20 18 17 17
69 67 67 65 63 63 62 60 59 58 56 55 54 54 53 51 51 46 41 43 41 34 29 26 23 24 27 28 29 30 29 27 25 25 25 25 25 26 26 27 27 27 27 26 24 23 21 19 20 22 24 25 25 24 22 22 20 20 20 18 16 15 15
71 69 69 68 66 65 64 61 59 58 58 58 57 56 56 55 53 48 46 47 43 33 27 26 25 25 27 28 30 31 31 30 29 28 28 28 28 27 27 28 28 27 27 26 23 20 19 19 20 21 24 26 27 27 26 24 23 23 22 20 17 15 15
74 71 71 70 68 67 65 61 60 60 59 59 58 58 57 56 54 52 51 49 40 30 28 29 28 28 29 29 30 31 32 33 33 31 29 30 29 28 28 29 30 28 27 27 25 21 19 20 19 18 21 24 26 27 27 27 27 26 24 23 21 18 17
76 74 73 72 72 70 66 63 62 60 60 60 60 59 58 57 55 54 52 48 40 35 34 34 31 30 32 32 32 33 34 36 36 33 31 32 31 30 30 31 31 30 28 27 27 24 22 22 21 20 20 22 25 30 31 31 31 29 25 25 24 21 20
79 76 75 75 75 70 67 66 64 61 61 62 61 60 59 57 57 56 54 51 46 41 39 37 34 33 35 36 35 35 36 37 37 36 33 33 33 32 32 32 32 30 28 27 27 25 24 24 24 24 23 22 25 29 31 31 31 29 26 25 24 23 22
81 79 77 78 76 72 70 70 67 63 62 61 61 61 59 58 58 58 57 55 50 45 42 40 37 37 39 39 38 37 36 37 37 37 35 34 35 35 34 34 32 30 29 29 29 27 26 27 26 25 24 24 25 27 28 28 27 26 25 25 25 24 24
83 81 80 80 78 75 73 72 70 67 63 61 62 63 60 58 59 59 58 55 52 49 47 43 41 42 43 42 41 39 37 36 37 38 37 36 36 36 36 36 34 32 31 32 32 31 30 29 28 26 26 27 27 28 29 28 26 26 26 26 26 26 26
84 82 82 82 81 78 75 73 73 71 66 62 63 64 61 57 58 59 57 55 53 51 50 47 45 45 46 45 44 41 39 37 36 37 38 38 37 37 37 38 36 34 34 34 34 34 34 32 31 29 28 28 29 30 31 30 29 28 27 26 27 28 28
84 84 84 84 83 81 77 75 75 74 70 65 62 64 63 58 57 58 57 54 53 52 52 50 49 49 49 48 45 42 41 39 38 37 39 39 38 38 38 39 39 37 37 38 38 38 38 38 36 33 31 29 29 30 31 31 30 29 27 27 29 29 29
85 85 86 85 84 82 78 77 76 75 74 69 63 64 65 60 57 58 56 53 52 52 53 52 51 50 49 47 45 43 42 41 40 39 39 39 39 39 39 40 40 39 39 40 40 40 40 40 39 37 34 32 31 31 31 30 30 30 28 28 30 30 31
86 85 86 86 85 82 78 76 76 75 76 73 67 65 64 60 57 56 55 52 51 51 52 52 51 50 47 46 46 45 42 41 41 41 41 40 40 40 41 41 41 41 41 40 40 41 41 41 41 40 38 37 36 35 34 33 32 31 30 30 31 32 34
85 85 85 86 85 83 78 76 75 75 75 75 71 66 63 60 57 55 54 52 51 50 51 51 51 49 47 46 46 45 43 41 40 40 41 42 42 42 43 44 44 43 43 43 42 42 42 42 42 42 42 40 39 38 38 36 34 33 33 34 35 36 38
85 85 86 86 87 84 78 74 74 75 75 75 73 67 62 59 56 54 52 51 49 49 49 50 50 49 48 47 46 45 44 42 40 40 41 42 44 44 44 46 47 46 46 46 45 44 43 43 43 44 44 42 41 40 39 37 35 35 35 36 37 38 39
86 86 88 90 89 83 74 68 69 72 74 74 73 68 62 58 55 53 52 51 49 48 47 48 48 48 47 47 46 45 45 44 42 41 41 42 44 45 45 47 49 49 49 49 48 47 46 45 45 45 45 44 44 43 41 40 39 38 38 38 39 40 40
87 87 88 88 84 75 67 65 66 68 70 70 70 67 63 59 55 53 52 51 50 49 48 48 48 48 47 47 47 46 45 45 44 43 42 42 42 44 45 46 48 50 50 50 50 50 49 48 47 47 47 47 47 46 45 44 44 43 43 43 43 44 44
83 84 84 84 80 70 64 64 64 63 63 64 64 63 61 59 56 53 52 51 52 52 52 51 51 50 49 48 48 48 46 45 44 44 43 43 42 43 43 44 46 49 50 51 51 51 51 51 50 50 51 50 50 50 49 49 49 48 48 48 47 47 47
74 75 78 82 80 71 63 61 61 59 59 57 56 56 56 54 53 54 53 51 52 53 55 55 54 52 52 50 50 51 50 48 46 45 44 44 43 42 42 42 43 44 46 48 49 50 50 51 51 51 52 52 53 53 53 53 53 52 50 49 48 46 45
65 66 70 76 79 73 64 62 61 57 54 53 51 52 54 52 51 53 55 54 55 56 56 57 56 55 54 54 53 54 53 51 49 46 45 44 44 43 42 41 41 41 43 45 47 47 48 48 48 48 49 49 50 51 51 51 50 48 47 46 45 44 43
60 60 62 70 76 75 68 65 64 58 52 53 53 53 55 56 55 57 57 57 58 59 58 58 57 56 57 58 58 58 57 55 52 50 47 46 46 45 44 43 41 41 43 45 46 46 45 45 45 45 45 45 45 45 46 46 45 45 45 45 46 46 46
57 57 57 60 68 74 71 66 65 62 56 55 58 56 56 58 61 61 60 60 61 61 60 59 56 55 59 63 63 62 61 59 56 54 52 51 49 48 48 47 44 43 44 46 47 47 45 44 44 44 44 44 45 45 46 46 47 47 47 47 47 48 49
55 55 55 51 55 68 73 67 64 65 61 57 58 57 56 58 60 58 58 61 64 63 62 60 55 53 58 64 65 64 63 62 59 57 55 54 53 52 51 50 47 44 43 45 47 47 46 45 45 45 45 46 47 47 47 48 48 48 48 48 48 48 49
54 54 53 49 50 62 71 68 64 65 65 62 60 58 56 56 57 55 56 59 62 61 59 57 54 52 54 60 63 64 63 61 60 59 59 58 56 54 52 51 49 46 44 43 44 46 47 47 47 48 48 48 48 49 48 49 49 49 50 49 49 49 49
52 54 51 48 50 59 69 70 65 63 65 66 64 62 58 55 53 53 54 55 57 58 59 58 56 53 50 53 59 62 60 58 59 61 62 61 58 55 53 52 51 50 47 45 44 45 46 47 48 50 51 52 52 51 50 50 51 51 51 50 50 49 49

ECMWFFLT2_500_spd_036.txt.gz
Wind_Speed
40 39 37 37 37 35 35 36 37 33 30 30 32 33 32 30 29 24 18 15 13 11 10 14 19 23 27 34 38 39 36 35 36 35 32 30 29 28 27 25 25 24 24 24 24 25 24 24 24 22 21 21 21 21 22 22 22 22 22 22 22 22 23
42 40 39 42 39 36 37 37 34 31 33 36 36 36 35 32 28 23 18 16 15 14 15 17 20 23 28 32 36 37 37 38 38 36 33 31 29 28 26 25 25 25 24 24 24 25 25 25 25 24 23 22 22 22 22 22 22 21 22 22 22 23 23
42 42 44 47 44 42 42 38 34 36 38 39 38 36 33 30 25 20 17 16 15 14 16 19 21 24 26 30 33 35 37 39 39 36 34 32 31 28 26 24 24 24 24 23 22 23 24 24 25 25 25 25 24 23 23 22 22 22 23 24 24 23 23
45 47 50 51 48 47 46 43 42 42 40 39 38 35 31 29 24 20 18 16 14 16 19 22 24 26 28 30 32 34 36 38 38 36 35 34 32 29 26 25 23 22 21 20 20 20 21 22 23 24 26 26 25 25 23 23 22 22 23 23 22 22 22
48 50 52 51 50 50 49 47 47 45 41 40 39 36 34 30 25 21 20 16 14 17 21 23 25 29 31 32 33 33 34 36 37 37 36 34 32 29 28 27 23 21 20 19 20 21 22 23 24 25 26 26 26 26 25 24 24 23 23 22 22 23 23
50 50 51 51 51 52 49 47 46 43 40 40 39 37 34 29 24 21 19 16 14 16 21 24 25 29 32 34 35 34 33 35 36 36 36 34 32 30 30 28 25 24 22 20 21 21 23 24 25 26 26 26 27 26 26 26 26 25 23 22 22 23 23
49 50 53 52 52 50 48 48 47 44 42 41 41 38 33 30 25 22 21 17 13 15 21 23 23 26 31 35 35 35 34 35 36 36 36 35 33 32 32 30 28 27 26 24 21 20 22 24 25 27 27 27 27 27 27 28 26 25 24 23 22 23 24
52 54 56 54 52 52 52 53 51 49 47 46 44 39 35 33 30 28 26 20 15 17 20 19 18 23 29 33 35 36 36 37 37 37 37 36 34 34 34 32 30 30 29 27 25 24 23 25 27 28 28 28 28 28 29 28 27 26 26 24 23 23 23
57 58 58 55 55 56 56 55 53 52 51 50 48 43 40 39 36 33 29 24 22 23 20 17 18 22 27 31 34 35 36 38 39 39 38 37 35 36 36 35 34 34 32 31 31 30 28 27 28 29 28 27 27 27 27 27 27 27 27 25 23 23 24
60 59 60 58 58 58 57 56 55 54 54 52 50 46 45 43 38 34 31 28 28 27 22 20 22 23 26 29 32 34 35 37 39 40 40 38 37 37 37 37 37 36 36 35 34 34 32 30 29 29 28 26 25 25 26 26 27 28 28 25 23 24 25
62 61 62 60 58 59 58 57 55 55 55 54 51 48 47 44 38 35 33 30 28 26 24 24 25 24 26 27 29 32 34 36 38 40 41 40 39 39 39 38 38 38 38 37 36 36 34 31 30 31 29 25 24 25 25 26 28 29 28 25 23 24 25
63 63 63 61 60 60 59 57 56 55 54 52 50 50 49 44 40 38 35 31 29 26 25 26 26 25 26 26 27 30 32 34 36 37 39 40 41 41 41 41 41 41 40 38 37 37 36 33 31 31 30 27 25 25 25 26 29 30 28 25 23 23 24
64 64 63 62 62 61 60 59 57 55 53 50 49 50 49 44 43 41 35 31 31 27 25 25 25 25 25 26 26 27 29 31 33 35 37 39 41 42 43 44 44 43 40 38 37 38 38 36 32 30 31 29 26 25 25 26 28 29 28 26 24 23 23
66 66 65 64 63 62 61 60 58 56 54 51 50 51 48 45 45 41 35 33 33 30 27 26 26 26 27 27 27 26 27 29 31 32 34 36 39 42 44 45 45 43 40 39 39 39 39 38 34 32 32 31 28 26 26 26 26 28 29 27 25 23 22
67 67 66 65 64 63 62 62 60 58 56 54 53 52 48 46 46 40 35 36 35 31 28 27 28 29 29 28 28 28 28 29 30 31 31 32 35 38 41 43 43 42 41 40 40 40 40 39 38 37 35 33 31 28 27 26 26 27 29 28 26 24 22
69 69 67 67 66 65 64 64 62 60 58 56 55 53 50 48 47 41 37 38 36 32 30 29 28 29 30 30 29 29 29 29 30 30 30 30 30 31 34 36 38 39 40 40 40 40 40 40 40 39 37 36 33 29 27 27 26 27 29 29 27 25 23
71 71 69 68 67 66 65 65 63 60 59 57 56 55 52 50 49 44 40 40 38 34 32 32 31 30 30 30 30 30 30 31 31 31 30 30 30 29 28 29 30 32 36 39 39 39 39 39 39 39 38 36 31 25 24 26 28 28 28 27 26 25 23
72 73 71 68 68 68 67 67 65 62 60 58 57 56 54 52 51 46 43 43 40 35 34 34 33 31 30 31 32 33 33 33 33 32 31 30 29 29 28 27 26 27 29 33 35 36 36 36 37 37 36 32 26 22 22 25 27 28 26 25 24 24 23
73 73 72 69 69 69 70 70 67 64 61 59 59 58 55 53 52 49 46 45 41 36 35 35 33 32 33 33 34 34 35 35 34 33 32 30 30 29 28 27 26 25 26 27 29 31 32 33 33 33 32 30 26 22 21 23 25 27 26 25 24 24 24
75 74 73 71 71 72 72 71 68 65 63 61 60 58 56 55 55 52 49 46 41 36 36 36 35 35 35 35 35 34 33 35 36 35 33 32 31 31 29 28 27 27 26 26 26 27 28 29 30 30 30 29 27 24 22 22 24 25 25 24 24 24 23
76 76 74 73 73 73 72 71 69 67 65 63 61 60 59 59 58 54 50 47 43 39 38 38 36 35 36 36 36 35 33 34 37 37 35 34 34 33 31 30 29 28 28 27 26 26 27 27 28 29 29 29 28 26 24 23 23 24 24 23 23 22 21
78 77 76 75 74 73 73 73 71 69 67 65 62 60 61 61 58 55 52 49 45 42 40 39 37 36 37 36 35 35 36 36 37 38 37 36 36 35 33 31 30 29 29 28 28 27 27 28 29 29 29 29 29 28 27 25 24 25 24 23 23 21 21
79 78 77 76 75 74 74 75 73 70 68 66 64 61 62 62 58 56 54 51 47 44 42 41 39 38 38 36 35 36 37 37 39 39 38 38 37 36 35 33 31 30 30 30 30 28 28 29 30 30 30 29 29 29 29 28 27 26 24 24 24 24 24
79 79 78 77 76 76 77 77 75 72 69 67 65 63 63 62 59 57 55 51 48 46 43 42 42 41 39 37 37 37 36 37 39 40 39 38 38 37 37 35 33 33 32 31 31 30 29 30 31 32 31 30 30 30 30 30 29 28 27 27 27 27 28
80 79 79 78 78 78 78 78 76 74 71 69 67 65 65 63 60 59 56 53 50 47 45 43 43 43 41 39 38 37 36 37 39 40 39 38 38 37 37 36 35 34 33 32 32 32 31 31 32 33 33 31 31 32 32 32 31 31 31 31 30 30 31
81 81 80 79 79 79 80 79 77 74 72 70 68 67 66 65 62 60 58 54 51 49 46 45 44 44 43 41 39 38 37 37 38 39 39 39 38 37 37 36 36 35 33 33 33 33 32 32 33 34 33 32 33 34 34 34 34 33 33 33 33 33 32
81 82 81 80 80 81 81 79 77 74 72 72 71 68 66 65 63 62 60 57 53 51 48 47 45 45 44 42 41 40 39 38 38 39 40 40 39 38 38 37 36 35 35 34 34 33 33 32 33 34 34 33 34 35 36 36 35 35 34 33 33 33 32
84 83 83 82 82 82 81 79 77 75 73 72 72 70 68 67 64 62 61 59 56 53 50 48 47 46 45 44 42 41 41 40 39 39 40 41 41 40 39 38 37 36 36 35 35 34 33 32 33 33 34 34 35 36 36 37 36 36 35 34 35 34 34
87 86 85 84 83 81 81 80 78 76 74 72 72 71 69 68 66 63 61 60 57 54 52 50 48 47 45 44 44 44 43 42 41 39 39 40 42 42 41 40 39 38 37 36 36 36 35 33 33 33 34 34 35 36 37 38 38 38 37 37 37 37 37
89 88 86 85 83 81 82 81 79 76 74 73 73 72 70 69 67 64 62 61 58 56 53 51 49 48 46 45 45 45 45 43 42 41 40 39 40 42 42 42 40 39 37 36 35 36 36 35 34 34 35 35 36 36 37 39 40 40 40 40 39 39 39
88 89 87 86 84 83 83 81 79 77 75 74 73 72 71 69 67 65 63 61 59 57 55 52 50 48 47 46 45 46 46 45 44 43 41 40 40 40 41 41 40 39 37 36 36 36 37 37 36 36 36 37 37 37 38 39 40 41 41 42 42 41 41
86 89 89 87 86 85 83 82 80 79 77 75 74 73 72 70 68 65 64 62 60 58 56 54 51 49 47 46 46 46 46 46 45 44 43 41 40 40 40 40 39 38 37 36 36 37 37 38 38 38 38 38 38 38 39 40 40 40 40 41 41 42 42
81 85 86 85 85 85 83 83 83 81 79 77 75 74 73 71 69 67 65 63 61 59 57 55 52 50 48 47 47 46 46 46 46 45 45 43 41 40 40 40 40 38 37 37 37 37 37 38 38 39 39 39 39 40 40 41 40 40 40 41 41 42 43
72 76 79 81 84 84 83 84 84 83 81 79 77 75 74 72 70 68 65 63 63 60 57 56 53 51 49 48 48 47 46 47 47 46 45 45 43 41 41 41 41 40 39 38 37 36 35 36 36 37 39 39 40 40 41 41 41 41 42 42 44 45 45
59 64 69 75 80 82 81 83 84 83 82 80 79 77 75 73 71 68 62 61 62 61 59 57 55 52 49 47 47 48 47 47 47 47 46 46 45 44 42 41 41 41 41 40 39 37 36 35 35 36 37 38 39 40 41 41 41 41 42 43 45 47 48
48 54 61 68 75 76 76 78 81 82 82 81 79 78 76 73 72 70 66 62 61 62 61 58 54 52 51 49 47 46 47 48 48 48 48 47 46 45 44 42 42 42 42 42 41 40 39 38 37 36 37 37 38 39 40 41 42 42 43 43 44 45 46
42 49 56 64 70 71 71 75 79 80 79 79 78 78 77 74 72 72 69 62 57 57 60 58 52 48 48 49 47 43 44 47 49 49 49 49 48 47 46 45 44 43 43 43 43 42 42 41 39 39 38 38 39 40 41 43 44 44 44 44 44 43 42

ECMWFFLT2_500_spd_039.txt.gz
Wind_Speed
43 44 43 41 42 42 42 43 41 34 33 37 39 38 38 36 36 36 34 27 21 21 18 14 15 18 19 21 25 29 34 39 41 39 34 29 28 28 26 23 23 22 22 22 22 22 22 23 22 22 22 22 23 24 25 25 25 25 24 24 25 25 24
45 45 43 43 42 40 42 42 37 35 36 39 40 38 37 36 34 34 32 27 23 19 17 14 15 17 20 24 28 31 35 39 42 41 38 32 29 29 26 24 24 24 23 23 22 22 22 22 22 21 21 23 23 24 24 25 24 24 24 24 24 24 23
45 45 44 46 46 42 42 41 37 39 41 40 39 39 37 37 36 33 31 29 26 19 14 15 17 20 22 27 31 33 36 38 39 40 41 36 31 28 26 27 26 24 23 23 22 22 22 22 22 21 22 23 23 23 24 23 23 23 23 23 23 23 22
49 46 47 49 51 47 43 43 42 41 42 41 39 38 37 36 36 32 28 28 26 19 16 17 19 21 23 28 31 33 35 36 37 40 42 39 32 27 27 29 26 22 22 23 22 22 22 23 23 23 23 23 23 23 23 23 23 23 22 22 21 21 21
55 50 51 51 51 51 47 46 47 44 43 43 40 39 39 38 36 31 25 20 16 18 23 22 20 21 24 27 29 31 34 35 37 41 42 38 32 28 28 27 22 21 23 24 24 24 24 24 24 24 24 24 24 24 24 24 24 23 22 22 21 21 21
58 52 49 49 49 52 50 47 48 46 44 43 42 42 40 38 36 33 28 17 11 20 26 22 20 22 26 29 30 31 32 34 36 39 41 37 29 27 27 24 22 24 26 26 26 25 24 24 24 24 24 24 24 24 24 24 24 23 23 23 22 22 22
55 54 48 48 49 49 50 49 47 48 46 42 43 42 38 38 37 36 34 25 19 24 23 19 21 26 30 32 33 32 32 33 35 38 40 38 31 27 26 26 28 29 27 26 26 25 24 24 25 26 26 25 25 24 24 24 24 23 23 23 23 23 23
42 53 51 49 50 49 52 53 49 50 48 43 42 40 38 38 36 36 36 30 25 23 19 19 23 28 32 34 33 33 33 33 36 37 38 40 37 32 29 29 30 29 26 25 24 24 26 27 27 28 28 27 26 25 25 24 24 24 24 24 24 24 23
30 47 53 52 55 54 55 56 52 51 50 46 44 42 40 39 35 35 36 31 28 24 18 18 22 26 32 35 33 33 34 34 36 39 41 40 36 34 33 32 30 27 25 24 25 26 27 28 28 28 29 29 28 27 26 25 25 26 27 26 25 24 24
38 49 57 56 57 57 56 55 53 52 50 49 48 45 44 42 37 37 35 28 30 27 21 21 23 24 30 34 34 35 36 37 39 41 41 37 31 33 35 33 32 31 29 28 28 29 29 28 28 27 28 29 29 29 28 26 26 26 27 27 26 25 25
49 50 54 54 54 57 57 55 55 54 51 50 50 48 47 45 40 41 36 30 33 33 26 25 22 22 28 33 36 38 38 39 41 40 38 34 32 35 36 35 35 35 34 33 32 33 32 30 28 27 27 28 29 28 27 27 27 26 26 27 26 24 25
59 52 55 58 58 58 57 55 56 55 52 51 52 51 50 47 44 43 40 36 37 35 30 29 24 23 29 33 36 39 40 42 43 40 36 34 34 35 36 37 37 37 37 35 35 35 34 32 30 28 26 27 27 27 27 27 27 26 26 26 25 25 25
67 62 62 65 63 58 57 56 55 55 54 53 52 52 50 48 47 44 42 41 39 33 30 32 27 25 29 32 35 39 41 42 41 38 37 37 36 35 36 36 37 38 38 37 36 37 35 34 33 31 29 28 27 27 27 26 26 26 25 25 25 25 26
69 68 67 67 65 62 61 58 55 54 55 55 53 51 50 48 48 46 44 43 40 35 33 32 29 28 31 34 37 39 41 41 40 40 40 39 38 37 37 37 38 39 39 38 38 38 37 36 35 34 32 31 30 29 28 27 26 25 25 25 24 25 26
70 70 70 69 68 66 62 58 55 53 53 53 52 51 50 49 48 47 47 45 41 39 37 34 33 32 33 34 36 37 39 39 40 41 41 41 41 42 41 41 41 40 39 39 39 38 39 39 37 36 35 34 34 32 31 29 27 26 26 24 23 23 24
72 71 71 70 69 67 63 61 60 58 55 52 51 51 52 51 50 49 48 47 45 43 40 36 34 33 32 31 30 32 34 35 36 37 38 40 41 41 41 41 41 40 40 40 40 39 40 40 39 37 36 36 36 34 32 31 29 28 26 24 22 21 22
70 70 69 69 70 71 68 65 63 62 60 57 54 55 55 53 52 51 50 49 48 44 41 38 34 32 31 29 27 28 30 31 32 34 35 36 36 37 38 39 40 40 40 40 40 40 40 40 39 37 36 37 37 36 35 33 31 29 27 26 24 22 22
67 67 69 70 71 73 71 66 63 63 62 61 59 58 56 52 50 48 46 47 47 42 39 38 37 35 33 30 28 29 30 29 30 31 33 33 34 34 34 34 34 35 36 37 37 37 38 38 38 37 37 37 37 37 36 35 33 31 29 28 28 25 22
64 64 70 72 72 73 71 67 66 65 63 62 60 59 56 52 49 46 44 45 46 44 42 41 40 39 36 33 32 31 30 30 29 29 30 31 31 32 31 30 30 30 31 34 34 35 35 36 37 38 38 38 38 38 37 36 35 32 29 27 27 26 23
63 62 68 72 73 73 71 70 69 68 66 63 61 59 57 54 52 49 47 47 46 45 44 43 41 40 38 35 33 31 31 32 31 30 29 30 30 31 32 31 29 27 28 29 29 30 32 34 36 37 38 39 40 39 38 37 35 32 28 25 24 23 21
66 64 66 69 72 73 73 73 72 70 68 65 61 60 59 57 55 53 51 50 49 47 45 44 42 40 38 34 31 31 33 34 34 33 33 33 33 33 32 30 29 28 27 26 25 26 28 30 33 35 38 39 40 40 38 37 35 31 26 23 22 20 20
69 67 63 63 66 66 66 71 73 71 68 66 64 63 62 59 57 55 53 52 50 47 45 44 42 39 37 33 31 34 36 36 36 37 36 35 34 33 31 30 30 28 26 25 25 24 25 26 28 31 35 37 39 39 38 37 35 29 24 22 21 20 20
71 70 64 60 57 52 54 64 72 74 71 69 67 63 60 60 59 57 55 52 50 49 47 46 44 41 39 37 36 38 39 37 37 37 37 36 35 34 33 32 31 29 27 27 26 25 25 25 25 27 30 33 36 36 36 36 34 29 24 22 21 20 20
73 72 69 62 49 44 51 57 61 69 74 72 69 64 60 61 60 56 55 55 54 52 50 48 47 44 43 42 41 42 40 37 37 37 36 37 37 36 35 33 32 31 30 29 28 27 26 26 26 26 27 29 31 32 33 34 32 29 26 24 23 22 22
73 72 70 63 49 45 54 52 47 60 73 71 68 66 61 60 59 55 55 56 56 54 51 50 49 47 45 44 42 42 40 38 38 38 38 39 39 38 36 34 33 33 32 31 30 29 28 27 27 27 27 27 28 29 30 32 31 30 28 27 26 25 24
73 71 70 66 51 44 54 53 44 53 64 62 62 65 61 59 59 58 57 57 57 55 52 51 51 49 46 45 43 42 41 40 39 39 39 40 40 39 38 36 35 34 33 32 31 29 28 28 29 29 28 28 28 28 29 30 31 31 30 29 28 27 26
73 71 69 67 56 50 59 61 51 51 57 59 62 65 63 60 59 59 59 59 58 57 55 53 52 51 48 47 45 44 42 41 40 40 40 40 40 40 40 38 37 36 34 33 32 30 29 29 29 30 30 29 29 29 29 30 31 32 31 30 29 29 28
71 69 66 65 62 61 67 67 59 56 58 60 64 66 65 63 60 58 58 59 58 57 56 54 54 52 51 49 47 45 43 43 42 42 40 40 40 41 41 40 39 38 37 35 34 32 31 30 30 31 31 30 30 30 30 30 31 32 32 31 31 30 30
72 73 70 69 69 69 70 69 67 65 63 61 63 65 65 65 62 58 56 57 59 59 57 56 55 54 52 51 49 46 45 44 44 42 40 40 40 41 42 41 41 40 38 37 36 34 33 31 31 32 31 31 31 31 31 31 31 32 33 33 33 33 33
73 74 74 75 75 75 76 77 75 72 69 67 67 66 64 64 64 62 58 57 58 59 58 56 55 54 52 51 49 47 46 46 45 44 42 41 41 41 42 41 41 41 40 38 37 36 35 33 33 32 32 32 32 32 32 32 32 32 33 34 35 36 36
71 72 72 75 78 79 80 81 78 75 74 73 71 69 67 65 64 63 62 60 59 59 59 57 55 53 52 51 49 48 48 47 46 45 44 42 41 41 41 41 42 42 41 40 39 38 37 36 34 33 33 32 32 32 33 33 33 32 33 35 36 37 38
68 73 75 78 81 83 82 80 77 76 77 77 74 71 70 69 66 64 63 62 60 59 59 57 55 53 52 52 50 49 48 48 46 46 45 44 43 41 41 41 42 42 41 41 40 39 38 37 36 35 34 33 33 33 33 34 34 34 34 35 36 38 39
67 73 76 78 80 81 81 80 79 79 80 79 77 74 72 71 70 67 66 65 64 61 59 57 56 54 53 52 52 51 50 48 47 47 46 45 45 43 42 41 41 41 41 41 41 40 39 38 37 37 36 35 34 34 34 34 34 35 35 36 36 38 39
69 73 75 76 78 80 81 82 82 82 82 80 79 77 76 74 72 70 68 67 67 65 62 59 57 55 53 52 52 52 51 50 48 48 47 47 46 46 44 43 42 42 41 41 40 40 39 38 38 38 37 37 36 35 34 35 35 36 37 37 37 38 39
66 72 75 77 80 81 82 83 83 83 81 80 78 77 76 75 74 72 70 69 67 66 64 61 58 56 54 53 53 52 51 50 49 49 49 48 48 47 46 45 44 43 42 41 40 40 39 38 37 37 37 37 37 36 36 36 37 38 38 39 39 39 40
56 64 71 77 81 81 79 80 81 81 79 78 78 77 76 74 73 72 71 69 68 66 64 62 59 56 55 55 54 53 51 50 50 49 49 49 48 48 47 46 45 45 43 42 41 40 40 39 37 37 37 37 37 37 37 38 38 39 40 41 41 41 41
48 55 63 71 78 79 78 78 80 80 79 78 78 77 76 75 74 72 71 69 67 66 65 62 60 57 56 55 54 53 53 52 50 49 50 49 48 48 48 48 47 46 44 43 43 42 41 40 39 38 38 38 38 38 38 39 39 40 41 42 42 43 44

ECMWFFLT2_500_spd_042.txt.gz
Wind_Speed
45 45 43 41 43 44 43 42 42 40 38 37 39 35 30 30 33 37 40 38 32 30 30 29 27 25 24 24 26 24 24 29 30 25 24 26 30 31 24 20 20 19 17 19 23 23 20 17 15 16 18 20 21 21 22 22 22 22 22 21 21 21 21
45 46 43 42 45 44 43 43 40 38 38 39 39 35 29 29 30 31 33 33 31 27 24 24 22 20 20 22 24 22 23 29 31 26 23 24 26 29 24 19 19 19 17 19 23 23 18 14 12 14 17 20 22 22 22 22 22 22 22 22 21 21 20
46 48 44 42 46 46 43 42 39 38 42 42 40 37 33 31 29 28 26 24 24 23 21 19 19 18 19 22 25 23 23 29 32 29 25 23 24 25 24 20 18 18 18 20 22 21 16 13 12 14 17 20 22 22 23 22 22 21 21 21 20 19 18
45 49 49 45 48 48 44 41 40 40 42 41 39 37 35 32 28 25 26 25 24 23 23 20 17 19 21 23 26 27 27 30 32 31 29 26 24 26 27 22 17 17 18 20 23 22 17 16 13 14 17 19 20 21 22 21 21 20 20 18 18 17 17
41 51 54 50 47 49 49 46 43 42 42 41 39 37 37 36 29 21 19 21 18 17 23 22 19 20 22 24 26 28 30 32 33 33 31 28 25 26 28 24 17 16 19 20 23 23 20 18 16 15 16 17 19 20 20 20 20 19 19 17 17 17 16
39 50 53 50 45 45 49 48 46 45 43 41 42 40 38 38 36 26 17 11 10 12 16 17 18 21 21 23 26 27 29 30 31 32 31 28 25 26 29 26 19 18 22 22 22 22 21 17 15 14 15 16 18 19 20 20 20 19 19 18 18 18 17
34 43 46 49 48 43 44 47 46 46 45 42 41 41 39 38 38 34 24 14 13 19 19 17 20 24 21 23 26 26 26 26 26 30 29 26 27 25 27 27 22 20 23 22 22 23 22 17 13 13 15 16 17 19 20 21 20 20 19 19 18 18 18
31 36 39 44 48 44 42 46 47 47 46 43 40 38 37 37 37 36 32 22 17 23 24 22 25 25 20 23 25 24 25 24 24 27 25 25 28 23 21 25 22 20 21 22 22 23 22 17 14 14 16 17 18 19 21 21 21 21 20 20 19 18 17
37 37 38 40 47 48 45 46 48 48 45 40 39 38 35 36 36 35 35 27 20 27 30 29 29 23 19 24 26 23 24 23 23 26 26 27 28 22 21 26 23 19 20 22 23 21 18 16 16 16 18 19 19 20 20 21 22 22 22 20 19 18 18
44 42 43 41 47 51 48 46 47 49 46 39 39 39 37 37 35 34 35 29 25 34 34 27 27 23 20 24 24 23 25 24 24 28 29 28 26 23 25 27 22 20 22 24 24 22 19 18 18 18 19 19 19 20 21 22 23 23 22 21 20 20 20
46 41 41 36 38 46 48 48 47 49 48 41 37 40 40 37 34 32 32 28 28 36 33 24 21 20 20 21 22 26 28 28 27 30 29 27 26 22 21 23 21 20 22 24 25 24 22 19 18 17 18 18 18 19 20 22 23 23 23 22 21 21 20
49 42 40 34 32 36 42 44 45 47 49 45 41 43 41 36 34 30 27 27 27 30 32 28 22 18 19 20 23 29 33 31 30 31 30 28 27 23 20 21 20 18 21 25 25 24 22 20 19 19 18 18 18 18 19 21 22 22 22 21 20 20 19
53 47 43 39 38 34 33 37 41 42 47 48 46 43 39 37 35 28 25 27 27 26 31 32 26 21 21 23 27 33 37 36 33 32 32 31 29 26 23 23 22 19 19 23 23 23 22 22 22 21 21 21 20 20 19 20 20 21 22 21 20 20 20
54 50 44 40 42 39 32 33 37 38 41 46 47 42 36 37 36 30 28 30 32 31 34 33 28 26 25 27 31 36 37 37 34 33 33 32 29 27 25 25 25 23 21 21 23 24 25 24 24 23 23 22 22 22 21 21 21 21 22 22 22 22 22
57 55 50 44 44 44 37 32 33 36 36 39 43 41 36 34 35 33 31 31 32 34 36 34 31 30 30 30 32 35 37 36 34 34 34 33 31 29 28 29 29 27 26 24 24 26 27 27 26 25 25 24 23 23 22 21 21 22 22 23 23 23 21
67 61 54 48 45 44 42 36 31 33 35 34 37 41 40 36 35 34 33 31 31 33 37 37 35 34 36 36 34 33 35 36 35 36 37 37 35 31 30 31 30 30 30 28 27 28 29 29 28 27 27 27 25 24 22 22 21 21 22 22 22 22 21
73 66 58 50 46 46 49 44 36 34 36 33 33 37 40 38 33 30 33 36 35 34 31 31 36 39 38 36 34 32 33 34 33 32 32 34 35 32 30 30 28 28 30 30 30 31 30 30 30 29 28 28 27 26 24 24 22 21 22 23 23 22 21
74 70 63 52 48 52 56 50 37 31 33 32 29 30 34 37 35 31 33 37 39 39 36 33 39 42 37 34 34 32 31 31 30 28 27 29 33 34 33 31 28 27 28 28 27 26 27 29 29 28 28 28 29 28 26 25 24 23 23 25 25 24 22
75 75 67 54 52 57 58 50 35 28 35 37 33 30 29 31 34 31 29 32 36 40 43 44 46 43 37 35 34 31 30 29 28 27 27 28 31 33 33 31 28 27 27 25 23 23 25 27 27 27 27 27 28 28 27 27 26 25 24 25 27 27 26
71 74 70 63 62 58 51 47 38 34 44 48 43 39 30 26 32 33 32 37 40 40 43 47 49 46 40 37 34 31 30 27 25 27 28 28 30 31 33 32 28 25 25 24 22 24 27 29 28 28 28 28 28 29 29 28 28 27 26 26 27 28 27
64 66 68 70 67 55 49 50 41 38 50 53 47 46 42 38 43 45 45 47 41 35 40 48 50 47 42 39 36 34 30 26 27 31 31 31 31 32 34 31 24 21 23 24 24 26 28 29 29 29 30 30 30 30 30 30 30 29 28 28 28 28 27
61 59 62 67 62 50 51 55 43 36 49 56 52 52 52 52 52 48 46 46 37 27 34 45 48 46 44 44 41 36 33 33 35 35 32 31 32 33 32 26 20 20 24 25 26 27 27 27 27 27 29 29 30 32 32 32 32 31 30 30 29 29 27
61 54 54 57 52 41 42 46 39 36 47 56 59 58 53 50 48 38 33 38 42 40 41 46 48 47 46 46 43 39 38 39 37 34 32 32 33 32 30 24 20 22 25 26 25 25 25 24 24 25 26 28 29 31 32 33 33 32 32 31 31 30 28
60 55 50 46 42 38 38 38 36 38 46 54 61 61 53 47 45 40 33 36 47 52 51 48 47 47 47 47 45 43 43 43 39 36 36 35 34 32 30 27 24 25 27 26 26 26 25 23 22 23 24 25 26 27 29 31 32 33 33 33 32 31 28
58 57 52 39 34 39 41 40 41 45 51 55 59 61 60 57 55 55 51 49 52 53 51 50 48 46 47 47 45 43 44 42 39 39 39 37 35 34 32 30 29 29 28 27 27 26 25 24 24 24 24 24 24 25 26 28 30 32 33 34 34 31 28
58 58 54 39 31 38 43 40 43 50 56 58 57 61 67 68 66 63 60 58 54 50 49 50 49 45 44 44 43 43 42 40 39 40 41 40 38 36 35 34 33 32 31 29 28 28 26 25 25 25 24 24 24 24 25 25 27 29 30 31 32 31 28
59 60 58 44 31 35 44 43 39 43 53 59 59 60 65 69 69 68 65 60 55 51 49 49 49 48 47 45 44 44 42 41 41 41 41 40 39 38 38 37 35 34 33 32 30 29 28 27 27 26 25 25 25 25 25 25 26 27 27 27 28 29 28
59 60 60 54 42 36 43 49 45 40 46 55 57 57 61 66 68 68 67 62 56 52 51 51 51 52 51 48 46 45 43 42 42 41 40 40 40 40 41 39 37 36 36 34 32 30 30 30 29 28 27 26 27 27 27 27 27 27 26 25 25 27 28
61 62 60 60 55 45 43 50 52 47 45 48 50 51 55 61 63 63 65 63 58 54 52 52 53 54 52 50 48 46 45 44 43 42 41 41 41 43 43 42 40 39 38 36 33 32 31 31 30 29 28 28 28 29 28 28 27 28 28 27 25 26 27
58 62 61 60 60 56 51 50 53 54 51 48 48 48 50 52 54 56 58 60 60 57 54 53 54 54 53 52 50 48 47 46 45 44 43 42 42 44 44 43 42 42 41 39 36 35 34 33 32 30 29 28 28 28 28 28 28 29 30 28 27 26 28
54 55 58 60 62 64 63 56 52 55 58 56 52 48 47 48 51 52 54 56 59 59 56 53 54 54 54 54 52 50 49 48 46 45 44 43 42 43 44 44 43 44 44 42 39 38 37 36 35 33 31 29 29 29 29 29 29 30 30 29 28 28 29
58 54 54 58 61 65 67 62 56 58 62 61 56 51 48 47 48 51 52 53 55 57 57 56 55 54 54 55 54 52 51 50 48 47 45 44 43 42 43 44 44 44 45 44 42 40 39 38 38 36 34 32 31 31 31 31 30 30 30 30 29 29 30
57 57 54 55 58 62 64 62 60 63 66 63 58 56 54 50 47 48 50 50 50 53 56 57 56 56 56 55 55 54 53 51 50 48 47 45 44 43 43 43 43 44 45 44 43 41 40 40 39 38 37 36 34 33 33 33 33 32 32 32 31 31 32
51 54 55 56 58 61 63 63 64 69 71 66 60 57 58 55 51 48 48 47 48 50 52 54 55 56 56 56 56 55 54 52 51 50 49 47 45 44 43 42 42 43 43 43 43 42 41 41 41 40 39 38 37 36 35 35 35 35 34 34 34 33 33
51 53 56 60 64 67 69 71 74 75 74 69 64 61 60 59 57 55 51 49 48 49 50 52 53 54 55 55 56 56 55 53 52 51 51 49 47 45 44 43 43 43 42 42 42 42 42 42 42 41 41 40 39 39 38 38 38 37 36 36 36 35 35
49 52 56 62 69 74 75 76 79 79 77 73 70 68 66 64 63 61 59 56 53 51 50 51 52 53 53 53 53 53 53 53 52 51 51 50 49 47 45 45 44 43 43 42 42 41 42 42 42 42 42 41 41 41 40 40 40 39 39 38 38 37 37
45 50 55 62 68 72 73 73 75 76 76 74 71 69 69 68 66 65 64 62 60 58 55 53 52 52 53 54 54 53 52 52 51 50 50 51 50 49 47 46 46 45 44 43 42 42 42 42 42 42 42 42 42 42 42 42 41 41 40 40 40 39 39

ECMWFFLT2_500_spd_045.txt.gz
Wind_Speed
43 40 40 41 40 38 37 40 40 38 35 33 33 34 35 38 41 41 41 41 38 35 35 34 32 31 30 30 29 27 28 28 27 28 23 13 13 16 16 17 18 18 17 15 14 14 15 16 17 19 21 23 24 23 23 23 22 22 21 20 18 17 16
43 41 40 40 41 38 39 41 39 35 34 32 33 35 36 39 40 37 36 36 34 34 32 29 30 30 27 29 31 30 30 31 31 30 24 16 16 18 17 16 18 19 19 17 16 15 16 17 17 19 22 25 25 24 23 22 22 21 21 20 19 18 16
43 41 41 41 41 40 40 41 37 35 35 36 37 38 38 38 37 34 33 32 31 30 27 22 23 25 24 23 25 27 29 33 34 30 24 19 17 18 18 16 17 20 21 19 16 14 17 18 17 18 21 24 25 24 23 22 21 21 21 21 20 18 17
41 40 44 46 43 42 42 39 36 35 35 36 38 38 36 35 34 31 29 26 25 25 21 18 17 19 19 19 21 25 27 31 33 27 23 22 20 19 18 15 18 21 21 18 15 14 16 17 16 16 18 21 23 23 22 21 20 20 19 18 17 16 15
34 41 48 49 45 43 45 43 38 38 37 35 35 36 35 34 33 29 24 22 22 19 14 14 15 16 16 16 18 23 26 27 28 26 26 26 23 21 18 16 19 22 19 16 15 15 16 17 15 13 14 18 21 22 22 21 20 18 16 15 15 14 13
32 41 46 49 47 43 44 45 41 41 39 36 35 37 35 33 32 29 22 16 14 12 11 14 16 14 15 17 17 21 23 24 25 27 28 27 24 20 17 18 19 19 18 17 16 16 16 15 14 11 12 15 18 20 22 22 20 17 16 15 15 15 14
34 36 35 41 46 44 42 42 42 42 41 38 38 37 34 32 32 31 25 15 9 10 14 16 15 15 17 19 18 19 21 21 25 27 27 27 24 19 17 20 20 19 19 17 15 14 14 15 15 13 13 13 14 17 21 22 20 18 17 16 15 14 14
36 32 31 33 37 40 41 41 41 42 43 41 39 36 33 32 32 31 30 24 17 12 13 12 13 16 20 20 18 19 21 22 24 26 25 25 23 19 18 19 20 22 21 17 15 13 14 16 16 15 14 12 13 17 20 22 21 19 18 17 16 14 14
38 35 35 37 36 36 41 44 43 43 42 39 36 35 33 33 32 31 33 31 23 15 12 15 19 21 22 21 19 20 21 20 22 24 23 22 21 20 18 15 19 24 22 16 14 14 15 17 16 14 13 13 15 18 20 22 21 19 18 17 16 15 15
44 40 42 46 43 39 42 44 44 43 41 36 34 36 35 33 32 32 33 33 29 23 19 19 24 24 22 23 21 19 20 21 21 22 21 20 20 18 13 12 19 22 21 19 17 16 16 18 16 14 13 14 16 19 21 21 21 19 17 16 16 15 15
50 45 45 44 42 42 41 41 41 42 42 37 31 35 37 34 32 31 30 31 32 31 27 25 26 23 21 27 25 19 19 21 21 20 19 18 19 16 10 14 20 21 22 22 20 18 18 19 17 16 14 14 16 18 20 21 20 18 16 15 15 15 14
53 49 47 39 37 41 40 36 37 39 42 41 35 34 36 35 32 30 28 28 31 33 31 30 29 25 24 30 29 20 19 21 21 20 20 19 20 16 9 10 15 20 23 21 18 16 18 20 18 16 15 14 14 16 17 18 19 17 15 14 13 13 13
55 52 47 37 34 39 40 36 35 38 41 44 41 35 32 32 32 29 27 27 30 32 30 29 29 28 29 32 29 22 21 22 23 22 22 21 20 16 9 6 9 16 20 18 16 16 17 18 18 16 16 15 14 13 13 12 13 13 12 10 9 10 10
57 54 49 42 39 41 41 37 33 36 40 43 43 36 28 28 29 27 27 27 28 27 25 25 26 28 32 34 29 22 22 24 25 25 24 24 22 17 10 7 8 12 15 15 16 17 18 18 17 17 18 17 15 14 12 9 8 8 8 7 7 7 8
61 57 51 48 46 43 42 38 32 36 39 39 41 38 30 28 27 25 24 23 23 23 22 22 23 25 29 33 31 25 24 25 25 25 26 25 22 19 14 10 10 12 13 14 15 17 18 17 17 18 20 19 18 16 13 11 9 8 8 8 8 8 8
64 59 52 50 50 47 46 42 36 39 40 37 39 41 34 29 27 26 24 22 23 25 26 25 25 27 30 32 32 27 25 25 25 26 27 26 24 23 21 18 16 15 15 16 15 16 18 18 18 19 21 21 19 17 14 13 12 11 11 11 11 10 10
66 61 54 53 53 51 48 43 37 41 42 35 36 40 37 29 27 28 28 27 28 30 31 30 31 33 32 32 31 29 24 24 26 28 29 30 29 28 26 23 20 18 17 18 18 19 19 19 19 20 21 21 19 17 16 15 14 13 13 13 13 12 11
67 61 56 55 55 53 49 41 36 39 40 34 33 37 38 33 28 30 32 31 33 35 34 33 34 35 33 31 31 29 25 25 28 28 29 31 32 29 25 21 19 19 19 18 18 20 20 21 21 21 21 21 19 18 17 16 15 14 14 14 12 11 11
69 60 56 55 55 55 49 39 36 40 40 37 34 33 35 35 30 32 34 33 34 37 36 35 35 36 34 33 32 29 27 28 29 27 25 28 29 26 22 20 20 21 19 16 15 16 18 19 21 21 21 20 19 18 17 15 15 15 15 14 13 12 12
71 60 57 57 56 54 48 40 41 44 42 39 39 37 39 44 42 36 36 38 37 37 37 37 38 38 37 38 37 34 32 30 29 27 24 24 26 25 23 23 23 24 22 18 14 14 14 15 16 17 18 18 18 18 17 16 16 16 16 15 14 14 14
75 64 57 57 56 53 50 48 49 50 45 41 43 47 47 49 48 40 36 38 40 39 39 40 40 39 39 39 38 36 34 31 30 30 27 25 24 24 24 24 23 23 22 18 16 15 16 15 15 16 17 17 18 18 18 17 17 17 16 15 15 15 15
77 70 57 52 55 56 57 57 53 51 50 46 43 50 51 47 47 46 41 40 41 42 42 42 41 40 40 39 38 36 35 32 32 32 29 26 25 24 24 22 21 20 18 16 16 16 17 17 17 18 19 19 19 19 19 18 19 18 17 17 17 17 17
75 74 60 51 55 60 63 61 53 50 54 52 45 48 52 49 50 53 49 44 44 44 43 42 43 43 42 41 40 38 35 32 32 32 30 27 27 26 24 22 21 19 17 16 16 17 18 19 20 21 21 21 21 21 21 21 21 20 20 20 21 20 19
72 75 68 57 56 63 67 62 55 54 59 57 48 49 53 52 54 57 55 48 46 47 46 47 48 48 47 45 43 41 39 35 33 33 32 30 29 27 25 24 22 21 19 18 19 19 19 19 20 20 20 20 20 20 21 22 22 22 23 24 25 24 22
73 73 70 63 59 64 67 64 60 62 65 61 53 50 52 55 57 60 60 56 54 55 54 53 53 52 50 47 44 43 42 39 37 36 33 31 30 28 27 26 25 23 22 21 21 20 19 19 20 20 20 19 19 19 20 21 21 22 24 26 26 26 24
75 72 65 62 62 64 66 66 64 65 67 65 59 52 53 58 59 61 63 63 61 61 61 58 57 55 51 46 44 43 42 40 39 37 35 33 32 31 30 29 28 26 24 23 23 21 20 20 21 21 20 20 19 20 20 21 21 22 23 24 25 25 25
73 75 68 62 62 61 64 66 65 64 63 65 64 58 55 60 62 61 64 64 62 61 61 59 57 55 51 47 44 42 40 38 36 36 36 36 36 34 33 32 31 29 27 26 26 24 22 22 22 22 21 21 20 21 20 20 21 21 21 22 22 23 25
66 73 74 70 66 61 61 64 64 62 61 63 66 63 58 59 64 64 64 63 61 59 59 58 57 55 53 49 44 39 35 33 34 34 36 38 39 38 37 35 34 32 30 28 27 26 24 23 23 23 23 22 21 21 21 20 21 21 20 21 21 22 23
62 66 71 75 72 65 60 62 64 64 62 61 63 65 62 60 63 66 65 63 61 59 58 58 57 55 52 49 44 38 35 34 34 36 37 39 41 41 40 38 36 34 32 30 28 28 27 26 26 25 24 23 23 22 22 22 22 22 22 22 22 22 23
60 63 64 70 73 69 63 61 62 64 65 64 62 64 65 64 63 64 65 65 63 61 60 59 57 51 46 43 39 38 37 36 35 37 38 39 41 41 42 41 38 37 36 33 31 30 29 29 28 27 26 25 24 24 24 24 24 25 25 24 24 24 24
54 60 63 65 67 66 66 64 61 60 63 67 67 65 64 65 65 64 64 64 64 65 64 63 59 53 48 44 42 40 40 39 37 37 39 40 40 41 42 42 41 39 38 36 35 33 32 31 30 29 28 27 26 26 26 26 27 28 27 26 25 25 25
51 56 61 63 61 60 64 68 67 63 61 63 67 70 67 64 65 65 64 64 65 66 67 66 63 59 55 52 49 46 43 42 40 40 40 40 40 41 41 42 42 41 41 39 37 36 34 33 32 31 30 29 28 27 27 28 28 29 29 28 27 26 27
52 53 57 61 61 59 62 69 72 70 65 60 63 69 71 69 67 67 67 67 66 66 68 68 66 64 60 57 53 49 46 43 42 42 42 42 42 41 41 42 42 42 42 41 39 38 37 36 35 34 32 31 30 29 29 28 29 30 31 30 29 28 29
51 54 58 63 65 61 61 67 71 70 66 62 60 64 68 69 68 68 70 71 70 69 69 69 67 65 62 60 57 53 49 46 43 43 44 44 43 43 42 42 42 42 42 42 41 40 39 38 37 36 35 34 33 32 31 31 31 31 32 32 31 31 30
51 53 56 62 67 63 58 61 65 64 61 60 59 59 62 64 65 65 66 69 72 73 73 71 67 63 60 58 56 55 53 49 46 45 46 47 46 45 44 44 43 43 43 43 43 42 41 40 39 38 38 37 36 35 35 34 33 34 34 34 33 33 32
53 54 55 58 64 67 63 57 56 56 56 57 57 55 55 57 59 60 58 58 60 65 67 66 64 61 58 56 55 56 56 53 49 48 47 48 48 47 46 45 44 43 43 44 44 43 43 42 40 40 39 39 39 38 38 37 36 36 36 36 36 35 35
50 56 59 60 60 64 66 63 56 52 52 53 55 56 55 54 55 55 53 49 48 50 53 54 55 55 55 55 56 57 58 56 53 50 48 48 47 47 47 45 44 43 42 43 43 43 43 43 42 41 41 41 40 40 40 39 39 38 38 38 38 38 38

ECMWFFLT2_500_spd_048.txt.gz
Wind_Speed
48 45 42 41 41 41 39 39 39 37 33 33 36 39 40 43 46 44 43 47 47 41 36 33 29 29 29 27 25 26 24 19 17 17 14 16 21 20 18 18 16 14 14 13 12 12 11 11 13 14 16 16 18 20 21 21 21 22 22 21 22 23 23
49 46 41 41 42 41 40 39 38 35 32 33 34 35 37 41 45 44 42 46 48 43 36 33 32 31 30 28 27 28 28 24 20 18 14 16 20 19 18 18 16 15 14 14 14 14 12 12 13 14 15 16 18 20 21 21 20 20 21 22 23 23 22
49 46 43 43 44 43 40 38 37 35 35 37 37 37 38 40 42 41 40 43 45 42 36 33 33 32 29 29 30 31 31 30 26 20 17 16 18 18 18 17 16 14 14 15 16 16 14 14 14 14 14 15 17 20 20 20 19 20 21 22 23 23 22
48 45 46 47 47 45 43 41 40 38 37 38 37 37 37 37 38 37 36 38 39 36 32 30 31 31 30 31 33 35 34 32 30 23 19 17 17 19 19 18 16 15 15 16 18 18 16 15 15 13 12 14 16 19 20 19 19 19 19 20 21 22 22
50 46 48 51 48 46 47 47 45 43 42 40 37 36 36 36 36 35 34 35 32 28 25 25 25 27 28 29 31 34 34 33 32 24 16 15 17 20 20 18 17 16 15 18 20 21 19 18 17 14 12 13 16 18 19 19 19 18 17 18 19 20 21
55 51 49 48 46 45 45 47 46 45 43 41 39 40 38 36 36 34 32 30 26 22 21 20 19 21 24 25 25 26 28 31 31 22 14 15 18 20 21 19 18 16 16 20 23 23 21 19 16 14 13 14 15 16 17 18 19 18 17 18 19 20 20
56 55 52 47 42 42 42 42 42 42 43 42 41 40 37 35 34 31 28 26 21 19 21 20 18 19 23 23 22 23 25 26 25 19 16 17 18 19 20 20 18 17 17 20 23 22 21 18 16 16 16 15 15 16 17 18 19 19 18 19 20 21 21
54 55 55 49 41 40 42 42 41 42 43 41 40 37 33 31 32 28 27 27 21 17 20 20 18 19 23 24 23 24 24 22 20 19 18 19 19 19 20 20 18 18 19 21 23 22 20 17 17 18 17 16 16 16 17 18 19 20 20 20 21 20 21
50 52 53 50 43 40 42 43 42 42 41 40 38 36 33 32 31 28 28 28 22 18 20 19 17 19 23 25 24 23 22 19 17 17 18 19 18 19 21 21 20 20 22 23 22 20 18 18 18 18 18 17 16 14 16 18 19 20 20 20 21 21 21
51 51 51 50 45 42 41 41 42 42 42 41 40 38 37 36 33 30 31 27 21 21 21 17 15 18 22 24 23 22 20 18 16 16 17 18 17 18 20 21 23 24 23 22 21 18 18 19 19 19 20 19 16 14 15 16 18 19 20 20 22 22 22
53 53 53 51 48 45 41 39 40 42 43 43 40 38 39 37 32 31 30 24 20 21 18 13 16 19 20 21 22 20 18 16 15 15 16 17 17 17 18 20 24 26 25 23 21 20 19 20 20 21 21 19 16 14 14 15 17 19 20 21 22 22 21
56 55 53 51 50 48 45 41 38 41 44 43 41 40 38 35 33 32 28 24 25 22 14 12 17 20 19 20 19 18 16 14 14 15 15 16 17 18 19 19 19 24 28 27 25 23 21 21 22 22 21 19 16 14 13 15 17 19 20 20 21 21 21
57 55 52 50 50 49 49 46 39 39 44 45 42 40 36 33 34 31 26 26 28 25 17 15 18 19 19 20 19 18 17 14 14 15 16 16 16 18 19 17 16 23 29 31 29 26 24 23 24 23 20 18 16 14 14 16 18 19 20 20 20 20 19
57 54 51 52 52 50 49 45 36 34 42 46 42 37 34 32 31 28 25 25 29 29 24 22 22 22 23 23 23 23 21 18 16 16 16 17 16 17 18 16 18 25 29 31 31 28 25 25 25 23 20 17 15 13 12 14 17 19 20 20 20 19 18
58 54 51 52 52 51 48 42 34 30 36 45 45 38 33 30 28 26 25 23 27 33 32 30 30 31 29 28 27 26 24 21 18 16 17 19 16 17 18 17 21 26 28 29 30 27 24 24 24 23 20 17 15 14 12 13 16 17 17 18 18 18 17
59 54 51 49 48 48 46 43 40 34 32 39 46 42 35 30 25 23 25 23 23 30 35 36 38 38 35 33 31 30 29 25 19 16 17 19 18 18 20 20 23 26 26 27 27 24 21 21 21 22 20 18 17 14 13 12 13 14 15 15 15 16 16
60 55 51 47 45 47 48 47 48 45 37 36 44 46 39 33 27 23 26 26 23 26 31 36 41 40 37 36 34 33 32 28 22 18 17 18 18 18 21 22 24 26 26 26 26 25 23 21 21 21 21 19 18 16 15 14 13 13 13 13 14 14 13
62 56 52 48 46 50 53 51 50 51 44 37 44 52 44 35 31 26 26 27 27 28 30 34 38 38 35 35 34 34 31 27 22 20 19 20 21 21 23 24 25 26 28 28 28 27 26 24 24 24 24 22 22 21 20 18 16 15 14 14 14 14 13
64 56 54 51 50 51 54 54 52 52 47 40 45 52 45 36 33 29 28 31 33 32 32 33 35 36 36 34 33 31 28 24 22 22 21 22 23 24 24 26 27 28 30 31 30 29 28 27 27 27 27 26 26 25 23 22 20 19 18 18 17 16 14
67 58 55 53 52 53 55 56 55 52 46 42 45 49 47 41 37 33 34 38 39 37 35 34 34 36 36 33 30 28 25 23 24 23 22 21 21 21 22 23 25 27 29 30 31 30 29 29 29 29 30 29 29 27 26 25 24 23 22 20 19 18 16
71 62 57 52 50 54 57 57 55 52 48 47 48 50 48 45 40 38 39 41 42 40 37 35 34 35 34 31 28 26 24 24 24 23 22 20 19 19 19 19 19 20 22 23 25 26 27 28 29 30 31 31 31 30 30 28 26 25 23 22 20 19 18
73 65 59 53 50 54 57 55 54 52 51 52 53 53 52 49 45 43 42 41 40 39 38 38 37 35 33 32 30 28 26 26 25 24 23 21 19 18 17 18 18 18 17 18 19 21 23 25 26 27 27 28 29 29 28 27 26 25 23 21 20 20 19
75 68 61 55 53 54 54 52 53 53 54 56 55 54 54 52 50 48 44 43 42 41 40 40 40 38 36 34 34 32 31 30 28 26 25 24 21 19 17 17 17 17 17 17 18 19 20 21 22 23 23 24 24 24 24 24 23 22 21 20 20 20 19
76 70 64 57 54 53 51 52 54 55 57 57 55 54 55 55 55 53 50 49 50 49 47 47 47 44 41 39 38 36 34 34 32 29 28 27 25 22 19 18 17 17 18 18 18 18 19 20 20 21 21 22 22 23 23 23 22 21 20 21 21 21 21
76 72 69 61 55 52 51 54 57 58 59 58 56 56 58 58 58 57 55 54 53 52 52 53 52 50 46 43 42 40 38 36 34 32 30 29 28 26 23 21 20 20 20 19 19 19 19 20 21 22 23 23 24 24 24 24 23 23 23 23 23 22 22
77 73 72 66 58 52 52 55 60 62 61 60 61 60 60 62 63 61 58 56 55 54 54 53 52 51 48 45 43 42 40 39 37 34 32 32 31 29 26 25 24 23 22 21 20 20 20 22 24 25 25 25 25 25 25 25 25 25 25 25 25 24 23
78 73 72 71 63 55 52 53 60 66 63 61 64 64 59 61 66 64 59 57 55 56 56 53 50 49 47 45 44 43 41 40 38 35 32 31 31 30 29 28 28 26 25 24 22 21 21 23 25 26 26 26 25 25 25 25 26 26 25 25 25 25 25
76 73 73 73 68 60 54 51 57 67 67 62 66 66 58 58 67 67 62 59 56 56 57 54 52 52 50 47 46 44 43 41 39 36 33 30 30 29 29 30 29 27 26 24 23 22 22 23 24 25 25 26 26 25 25 25 26 26 26 26 27 27 27
72 74 75 76 73 68 61 51 52 65 69 64 69 69 58 57 68 70 64 62 60 58 58 56 55 56 54 51 49 47 45 44 41 38 36 34 32 31 30 30 30 28 27 26 24 23 23 23 23 23 23 24 25 25 26 26 26 26 26 27 27 28 28
68 74 77 77 76 75 66 51 48 61 67 64 70 73 59 56 70 75 69 66 64 61 60 57 56 56 55 54 52 49 47 46 44 42 41 39 37 35 34 34 34 32 31 30 27 25 25 24 24 23 23 23 23 24 25 26 26 26 26 27 27 27 28
64 73 76 77 78 78 71 55 47 57 64 63 69 73 61 55 68 76 74 70 68 66 64 62 58 56 55 54 53 51 49 48 47 45 44 41 39 38 39 40 40 38 36 34 32 30 29 27 26 26 25 24 24 24 24 25 25 26 26 27 27 27 27
61 71 74 76 80 81 77 64 51 53 62 64 66 69 62 54 60 69 71 71 70 68 67 66 62 58 56 54 54 52 50 49 48 46 44 41 39 39 42 44 44 43 41 39 36 34 33 31 29 28 28 27 26 25 25 25 25 26 26 26 27 26 26
57 65 68 72 79 82 80 73 59 51 57 63 64 66 64 58 59 62 64 66 69 69 68 67 63 60 57 55 54 53 51 51 50 47 44 40 36 35 39 44 45 44 43 42 40 37 36 35 32 30 29 29 28 27 27 26 26 26 27 27 27 27 27
51 60 62 66 76 82 81 78 70 58 55 59 62 65 66 64 63 63 61 61 65 68 69 68 64 59 57 55 54 54 54 53 52 49 45 41 37 35 36 39 42 42 42 43 42 40 39 37 36 33 32 31 30 29 29 28 27 27 28 28 28 28 29
45 55 59 62 72 80 79 77 75 67 59 56 56 60 66 69 69 68 63 59 60 62 63 65 63 60 57 56 56 57 57 56 54 50 45 43 41 38 37 38 39 40 40 41 42 42 41 39 38 37 34 33 32 31 30 30 29 28 29 29 29 29 30
42 50 55 58 68 76 75 74 75 71 65 60 55 53 59 67 73 74 69 62 60 60 61 63 65 64 62 61 60 60 60 59 55 50 47 45 43 40 37 37 38 38 39 40 41 42 43 42 40 39 37 35 34 33 32 32 31 30 30 30 30 30 31
43 47 51 55 62 70 71 72 73 72 68 67 63 57 53 55 63 72 73 67 63 65 67 67 68 68 67 66 64 63 61 60 56 51 48 49 48 42 38 37 37 37 38 39 40 41 43 43 42 41 39 38 36 35 34 33 33 32 32 32 31 32 32